     2              OBSERVATION DATA    GPS                 RINEX VERSION / TYPE
teqc 2000Feb29 20021016 17:28:47UTC                         PGM / RUN BY / DATE
                                                            COMMENT
L2: 1 -> 1; 5 -> 5; 60 -> 9                                 COMMENT
L2: 1 -> 1; 5 -> 5; 60 -> 9                                 COMMENT
L2: 1 -> 1; 5 -> 5; 60 -> 9                                 COMMENT
L2: 1 -> 1; 5 -> 5; 60 -> 9                                 COMMENT
L2: 1 -> 1; 5 -> 5; 60 -> 9                                 COMMENT
Original Marker Name: 4042190                               COMMENT
Campaign Name: Yolo County Subsidence 2002                  COMMENT
4-Character Station Name: 1075                              COMMENT
6-Character Antenna Code: TRMCMP                            COMMENT
Vertical Measurement Point: BPA                             COMMENT
Vertical Offset to Rinex Ref. Point: 0.0000                 COMMENT
Radial Measurement Point: RRP                               COMMENT
Radial Offset to Rinex Ref. Point: 0.0000                   COMMENT
Antenna Height from Field Measurement: 2.0000 m             COMMENT
Additional Antenna Identification Info.:                    COMMENT
Model 22020.00+GP                                           COMMENT
Original XYZ: -2630882.9714 -4221203.8933 3979144.5541      COMMENT
New XYZ position is based on association with SCEC monument COMMENT
E1O4H6E9+0011. Position of that monument is believed to be  COMMENT
valid to within 1 m horizontally; vertical accuracy         COMMENT
should be no worse than 3-times this value.                 COMMENT
                                                            COMMENT
Revised Rinex header created by UCSD GPS archive for        COMMENT
GSAC on 27-Jun-2003 (2003:178) 16:42:14 GMT                 COMMENT
For assistance contact dagnew@ucsd.edu                      COMMENT
or anderson@python.ucsd.edu                                 COMMENT
                                                            COMMENT
P1075 1967                                                  MARKER NAME
4042                                                        MARKER NUMBER
-Unknown- YOLO_COUNTY                                       OBSERVER / AGENCY
220224042 TRIMBLE 4700 NP 1.30; SP 1.43                     REC # / TYPE / VERS
0220078884 TR GEOD L1/L2 GP                                 ANT # / TYPE
 -2630885.9755 -4221205.1736  3979143.4547                  APPROX POSITION XYZ
        2.0000        0.0000        0.0000                  ANTENNA: DELTA H/E/N
     1     1     0                                          WAVELENGTH FACT L1/2
     7    C1    L1    L2    P1    P2    S1    S2            # / TYPES OF OBSERV
     0                                                      INTERVAL
  2002     7     9    20    29   30.000000                  TIME OF FIRST OBS
  2002     7     9    21    15   45.000000                  TIME OF LAST OBS
                                                            END OF HEADER
 02  7  9 20 29 30.0000000  0  5G 3G14G18G21G31
  23349397.2504      30898.81859      9268.79657                  23349398.5864
        45.2504         33.2504
  20090017.8364      -9619.70559     -7741.02358                  20090014.6914
        51.7504         46.2504
  23683716.4924      16512.61259        -6.25157                  23683715.8244
        45.0004         30.5004
  21330018.5554       3944.95659     -2803.44858                  21330017.1484
        51.7504         43.7504
  22550100.7584      11135.43459      -214.59357                  22550100.8954
        47.5004         36.7504
 02  7  9 20 29 45.0000000  0  6G 3G14G18G21G31G 9
  23355170.6094      61239.32649     32910.67247                  23355172.4104
        46.0004         32.5004
  20088560.3444     -17279.45449    -13709.66848                  20088557.4844
        52.7504         45.2504
  23688588.5634      42118.28049     19946.14947                  23688588.3834
        45.7504         29.0004
  21330557.8984       6778.49149      -595.51048                  21330556.7544
        52.5004         43.5004
  22551783.5394      19980.01249      6677.25947                  22551784.0664
        48.0004         36.0004
  24263884.6174      32023.49149     12664.10556                  24263885.7034
        42.5004         22.7504
 02  7  9 20 30  0.0000000  0  8G 3G11G14G18G21G25G31G 9
  23360907.8444      91388.35649     56403.33747                  23360909.9024
        45.5004         32.5004
  23423390.3524    -186630.36059   -125998.76657                  23423389.2624
        47.0004         31.0004
  20087082.1334     -25046.34149    -19761.80148                  20087079.4734
        51.7504         45.0004
  23693421.8444      67514.32049     39735.22947                  23693421.5944
        46.2504         29.0004
  21331062.1954       9428.83449      1469.68148                  21331061.0704
        52.0004         43.0004
  23349726.3204    -194380.37359   -128394.08457                  23349727.8284
        46.7504         32.5004
  22553445.5944      28712.71549     13481.92247                  22553445.7114
        48.5004         36.5004
  24268429.8364      55907.50049     31274.99346                  24268430.5434
        41.0004         22.7504
 02  7  9 20 30 15.0000000  0  8G 3G11G14G18G21G25G31G 9
  23366608.6174     121344.62549     79745.80847                  23366610.4414
        45.5004         32.0004
  23411781.2894    -247636.28549   -173535.80747                  23411780.2624
        47.0004         31.5004
  20085583.7504     -32921.37249    -25898.20348                  20085580.7974
        52.2504         45.0004
  23698214.2974      92699.69649     59360.16547                  23698213.6644
        45.7504         30.0004
  21331531.6414      11895.03049      3391.36448                  21331530.6054
        52.0004         43.2504
  23337884.4454    -256606.32349   -176881.74947                  23337886.2304
        46.2504         32.7504
  22555086.3284      37332.27749     20198.43547                  22555085.8524
        48.2504         36.0004
  24272952.8054      79674.93349     49795.01046                  24272953.6134
        41.5004         22.7504
 02  7  9 20 30 29.9990000  0  8G 3G11G14G18G21G25G31G 9
  23372272.9484     151113.09049    102941.91447                  23372275.0814
        44.2504         31.7504
  23400139.2844    -308815.33849   -221207.77547                  23400138.1054
        47.0004         31.2504
  20084065.8784     -40896.98549    -32112.96148                  20084063.0154
        52.2504         44.7504
  23702967.6124     117680.13949     78825.39147                  23702967.5224
        46.0004         29.5004
  21331967.1674      14184.30149      5175.19948                  21331965.7574
        52.7504         43.2504
  23326006.9954    -319022.56749   -225517.68847                  23326007.7724
        46.0004         31.5004
  22556706.2224      45845.21349     26831.86447                  22556706.4644
        48.7504         36.5004
  24277454.7144     103331.23849     68228.47746                  24277456.1794
        43.0004         22.5004
 02  7  9 20 30 44.9990000  0  8G 3G11G14G18G21G25G31G 9
  23377903.8474     180705.28749    126000.68447                  23377906.3904
        44.2504         31.0004
  23388464.3704    -370167.27849   -269014.45147                  23388463.3044
        47.5004         30.7504
  20082530.3784     -48966.38149    -38400.81748                  20082527.4484
        52.0004         44.7504
  23707684.8314     142466.86049     98139.68747                  23707684.4054
        45.5004         29.5004
  21332370.6904      16304.87149      6827.58248                  21332369.3944
        51.7504         43.2504
  23314093.6124    -381629.08349   -274301.89947                  23314095.0154
        46.5004         32.2504
  22558307.8704      54260.26249     33389.00547                  22558307.5384
        48.5004         36.2504
  24281936.9014     126887.29149     86583.83246                  24281938.3864
        42.2504         23.7504
 02  7  9 20 30 59.9990000  0  7G 3G11G14G18G21G25G31
  23383502.4564     210126.61449    148926.28847                  23383505.1474
        43.7504         32.0004
  23376759.3004    -431679.93149   -316946.37947                  23376757.1634
        46.7504         31.0004
  20080978.4724     -57121.33349    -44755.32748                  20080975.3624
        52.2504         45.0004
  23712365.6364     167065.91949    117307.74847                  23712365.8904
        46.0004         30.5004
  21332743.1444      18264.39249      8354.46248                  21332742.6594
        52.0004         43.0004
  23302145.7614    -444413.68149   -323224.87947                  23302147.1794
        46.5004         32.2504
  22559891.6754      62584.44849     39875.34947                  22559891.4374
        48.5004         36.5004
 02  7  9 20 31 14.9990000  0  7G 3G11G14G18G21G25G31
  23389070.0654     239386.51249    171726.12447                  23389073.2104
        44.0004         30.7504
  23365024.6904    -493343.25349   -364995.69547                  23365023.0504
        46.2504         30.5004
  20079411.8554     -65352.28149    -51169.06648                  20079409.4804
        52.0004         44.7504
  23717012.8944     191487.19449    136337.25847                  23717012.7454
        45.2504         29.5004
  21333087.6204      20073.02049      9763.77048                  21333086.4684
        51.5004         42.7504
  23290167.0654    -507366.16049   -372278.68347                  23290167.8474
        47.0004         32.7504
  22561460.4484      70827.18149     46298.24047                  22561459.9254
        48.2504         36.7504
 02  7  9 20 31 29.9990000  0  7G 3G11G14G18G21G25G31
  23394611.8704     268502.10249    194413.50747                  23394613.9524
        44.5004         31.5004
  23353264.8234    -555139.53649   -413148.61847                  23353264.0154
        46.5004         30.0004
  20077834.5264     -73641.95049    -57628.55048                  20077831.9374
        51.7504         44.7504
  23721629.3944     215748.10649    155241.80347                  23721629.6054
        43.2504         28.0004
  21333406.2614      21748.04649     11068.96148                  21333405.2304
        52.2504         42.7504
  23278158.8004    -570468.75649   -421449.42847                  23278159.2964
        46.5004         33.0004
  22563016.5194      79005.83349     52671.16647                  22563016.6904
        48.5004         36.2504
 02  7  9 20 31 44.9990000  0  7G 3G11G14G18G21G25G31
  23400124.4094     297470.56049    216986.25747                  23400126.6084
        45.0004         31.0004
  23341479.4954    -617070.78349   -461406.69647                  23341478.3314
        46.2504         30.7504
  20076245.5654     -81992.87449    -64135.76048                  20076243.0224
        51.7504         44.5004
  23726215.6594     239846.24549    174019.55447                  23726215.0424
        40.5004         28.0004
  21333699.1754      23287.22149     12268.32148                  21333697.9834
        51.7504         42.5004
  23266121.2764    -633723.39249   -470738.66847                  23266122.5734
        47.0004         32.5004
  22564560.0654      87117.59349     58991.99447                  22564559.9334
        47.5004         36.5004
 02  7  9 20 31 59.9990000  0  7G 3G11G14G18G21G25G31
  23405610.7144     326301.26249    239451.64247                  23405613.0344
        45.2504         31.0004
  23329671.2694    -679127.03349   -509762.18847                  23329669.7804
        46.5004         30.7504
  20074646.7534     -90395.54949    -70683.30648                  20074643.9294
        51.7504         44.5004
  23730771.7304     263791.29249    192677.99547                  23730771.7534
        41.2504         28.2504
  21333967.7064      24700.05149     13369.20748                  21333966.5224
        51.5004         42.0004
  23254057.1124    -697120.29349   -520138.77147                  23254058.7024
        47.7504         33.5004
  22566092.1444      95171.89849     65268.05047                  22566092.5464
        48.0004         36.2504
 02  7  9 20 32 14.9990000  0  7G 3G11G14G18G21G25G31
  23411072.9094     355004.88149    261818.03247                  23411074.8904
        45.5004         30.7504
  23317840.6514    -741296.93449   -558206.23547                  23317838.7844
        46.5004         29.7504
  20073039.7224     -98838.95749    -77262.58948                  20073036.8514
        51.7504         45.0004
  23735301.3784     287594.33349    211225.77147                  23735301.5114
        42.2504         28.7504
  21334215.2924      25997.90249     14380.50748                  21334213.9604
        52.0004         42.5004
  23241968.7374    -760647.82549   -569640.64347                  23241970.1834
        48.0004         34.5004
  22567616.5584     103179.57449     71507.76747                  22567616.4334
        47.7504         36.0004
 02  7  9 20 32 29.9990000  0  7G 3G11G14G18G21G25G31
  23416511.0504     383584.86749    284088.08047                  23416513.1984
        45.0004         31.2504
  23305988.9094    -803576.43949   -606735.68847                  23305987.8554
        46.7504         30.0004
  20071426.0974    -107319.56149    -83870.84948                  20071423.4254
        52.5004         45.0004
  23739804.5194     311259.01549    229665.72447                  23739804.8394
        43.2504         28.5004
  21334440.8784      27184.43449     15305.06448                  21334439.8274
        52.0004         43.0004
  23229854.9334    -824302.03449   -619241.23147                  23229857.3154
        47.5004         33.2504
  22569131.6984     111143.94449     77713.74747                  22569132.1244
        47.5004         36.0004
 02  7  9 20 32 44.9990000  0  7G 3G11G14G18G21G25G31
  23421927.1984     412044.82849    306264.56747                  23421929.5734
        45.0004         32.0004
  23294117.6904    -865961.28449   -655347.22947                  23294116.1554
        46.5004         30.2504
  20069805.8624    -115833.62349    -90505.18348                  20069802.9684
        52.2504         45.5004
  23744282.0894     334789.31649    248000.99847                  23744282.5814
        43.0004         28.2504
  21334646.7764      28263.68449     16146.02748                  21334645.3274
        52.0004         43.0004
  23217718.9564    -888078.47549   -668937.07647                  23217719.9404
        47.7504         33.0004
  22570639.7844     119068.91549     83889.01547                  22570640.2374
        47.5004         35.5004
 02  7  9 20 32 59.9990000  0  7G 3G11G14G18G21G25G31
  23427321.4254     440390.06849    328351.70447                  23427323.9094
        45.2504         31.7504
  23282227.0734    -928445.65149   -704036.31147                  23282225.8354
        46.5004         30.5004
  20068180.3154    -124375.67849    -97161.33348                  20068177.1834
        51.7504         45.0004
  23748735.5974     358190.76649    266235.82847                  23748735.0654
        43.7504         28.7504
  21334832.3394      29241.14749     16907.66448                  21334830.9874
        52.5004         43.0004
  23205560.6364    -951971.22249   -718723.55047                  23205562.1084
        48.2504         33.5004
  22572141.5194     126959.55449     90037.55047                  22572141.9804
        47.2504         36.0004
 02  7  9 20 33 14.9990000  0  7G 3G11G14G18G21G25G31
  23432694.9094     468628.10649    350355.30047                  23432697.1634
        44.7504         31.7504
  23270318.9724    -991021.25849   -752796.47447                  23270318.0814
        45.2504         30.7504
  20066551.4484    -132937.90549   -103833.19348                  20066548.3124
        52.7504         45.5004
  23753166.2764     381471.31349    284376.49747                  23753166.1984
        43.5004         28.2504
  21335000.7614      30125.06149     17596.41848                  21334999.3004
        52.2504         43.0004
  23193381.9954   -1015971.94549   -768594.15847                  23193383.3704
        47.7504         33.7504
  22573638.4644     134823.66449     96165.39247                  22573638.1084
        47.5004         36.2504
 02  7  9 20 33 29.9990000  0  7G 3G11G14G18G21G25G31
  23438048.1204     496758.33249    372274.86747                  23438050.3234
        45.2504         32.0004
  23258393.9094   -1053687.97649   -801627.67347                  23258392.9524
        46.2504         30.5004
  20064918.0974    -141520.64049   -110521.03748                  20064914.9134
        52.2504         45.2504
  23757573.5814     404630.82949    302422.82447                  23757572.8784
        42.5004         28.7504
  21335150.8394      30915.25349     18212.14048                  21335149.7024
        52.5004         43.0004
  23181182.3004   -1080080.50449   -818548.78147                  23181183.5814
        47.7504         33.5004
  22575129.5034     142660.80349    102272.22847                  22575129.9134
        47.2504         35.5004
 02  7  9 20 33 44.9990000  0  7G 3G11G14G18G21G25G31
  23443381.8474     524789.49849    394117.23847                  23443384.5974
        44.0004         31.5004
  23246453.6124   -1116436.44749   -850522.55947                  23246452.5114
        45.2504         31.0004
  20063282.5194    -150114.94949   -117217.90848                  20063279.5034
        51.7504         44.5004
  23761959.0504     427678.36849    320381.90747                  23761958.9834
        43.2504         27.7504
  21335285.1204      31620.63549     18761.77448                  21335284.1244
        52.0004         42.5004
  23168964.4014   -1144287.41049   -868580.06847                  23168965.8124
        47.5004         33.0004
  22576617.6904     150479.73149    108364.86747                  22576617.6944
        48.0004         36.2504
 02  7  9 20 33 59.9990000  0  7G 3G11G14G18G21G25G31
  23448697.6284     552722.60649    415883.22447                  23448700.1364
        44.5004         30.0004
  23234497.4874   -1179264.96549   -899479.81147                  23234496.5194
        46.5004         30.7504
  20061645.0264    -158719.67849   -123922.88948                  20061642.5504
        51.5004         44.5004
  23766323.9874     450615.29749    338254.79247                  23766323.1444
        42.5004         28.0004
  21335403.4094      32242.88149     19246.63448                  21335402.4134
        51.0004         42.5004
  23156726.9724   -1208591.00149   -918686.65947                  23156728.4254
        46.5004         32.2504
  22578102.4954     158281.44449    114444.09847                  22578102.4764
        47.2504         36.0004
 02  7  9 20 34 14.9990000  0  7G 3G11G14G18G21G25G31
  23453995.5814     580559.76949    437574.45047                  23453997.6084
        45.0004         31.0004
  23222527.1834   -1242170.79649   -948497.29547                  23222526.0114
        46.2504         31.0004
  20060006.0264    -167332.57549   -130634.23548                  20060003.3584
        50.7504         44.7504
  23770668.4954     473443.96949    356043.32747                  23770667.7964
        43.0004         27.5004
  21335506.3704      32784.46949     19668.64448                  21335506.0654
        51.5004         43.0004
  23144472.8154   -1272988.47649   -968866.42047                  23144474.2224
        47.0004         32.5004
  22579584.0264     166068.19249    120511.65847                  22579583.8124
        47.7504         35.7504
 02  7  9 20 34 29.9990000  0  7G 3G11G14G18G21G25G31
  23459274.8474     608305.08249    459194.08647                  23459277.2724
        44.2504         30.5004
  23210542.9334   -1305149.19049   -997571.35847                  23210541.5224
        47.0004         31.2504
  20058366.2304    -175949.24649   -137348.53048                  20058363.4834
        51.0004         44.7504
  23774992.1054     496168.97849    373751.07447                  23774991.9444
        42.2504         28.0004
  21335595.2144      33249.68749     20031.13448                  21335594.1594
        50.7504         42.5004
  23132200.7614   -1337475.01849  -1019115.60547                  23132202.7844
        46.5004         31.7504
  22581063.7144     173844.19049    126570.85247                  22581063.7574
        48.2504         36.5004
 02  7  9 20 34 44.9990000  0  7G 3G11G14G18G21G25G31
  23464538.9804     635966.21649    480748.13047                  23464541.0654
        43.5004         31.2504
  23198546.4564   -1368191.73449  -1046695.39247                  23198545.2844
        47.5004         31.7504
  20056727.2614    -184561.86849   -144059.67248                  20056724.4724
        51.5004         44.5004
  23779298.0894     518798.42949    391384.36747                  23779298.4334
        42.0004         27.2504
  21335670.8084      33646.68549     20340.47048                  21335669.5384
        51.5004         42.5004
  23119914.1124   -1402042.27749  -1069427.66547                  23119915.7184
        46.7504         32.7504
  22582542.9804     181617.24249    132627.74447                  22582542.8004
        47.2504         35.5004
 02  7  9 20 34 59.9990000  0  7G 3G11G14G18G21G25G31
  23469786.7374     663543.14149    502236.54347                  23469788.5654
        45.2504         30.5004
  23186537.6904   -1431297.94449  -1095869.02947                  23186536.1124
        48.0004         31.5004
  20055089.1284    -193170.26049   -150767.51048                  20055086.4254
        52.2504         45.0004
  23783586.6594     541332.43649    408943.26647                  23783586.6244
        42.2504         27.2504
  21335733.3784      33975.69149     20596.81148                  21335732.1404
        51.5004         42.0004
  23107611.9954   -1466689.49549  -1119802.03947                  23107613.4484
        45.7504         32.0004
  22584021.1514     189387.27849    138682.28247                  22584020.9914
        47.7504         35.5004
 02  7  9 20 35 14.9990000  0  7G 3G11G14G18G21G25G31
  23475018.6984     691036.45349    523659.82147                  23475021.1754
        43.7504         30.7504
  23174517.0654   -1494466.55149  -1145091.29047                  23174515.1324
        47.5004         32.2504
  20053452.2374    -201773.66349   -157471.46348                  20053449.2454
        50.5004         44.7504
  23787856.5974     563771.94149    426428.54647                  23787856.3974
        42.0004         27.2504
  21335783.4564      34237.89349     20801.10948                  21335782.5774
        51.2504         42.5004
  23095295.0734   -1531415.39349  -1170237.72647                  23095296.4174
        46.7504         33.2504
  22585499.7454     197154.89649    144734.94647                  22585499.4834
        48.0004         35.5004
 02  7  9 20 35 29.9990000  0  7G 3G11G14G18G21G25G31
  23480234.5974     718449.59649    545020.62747                  23480236.9804
        43.2504         30.2504
  23162485.1444   -1557693.37849  -1194358.92847                  23162483.9564
        47.5004         33.0004
  20051816.5974    -210368.43349   -164168.69048                  20051813.6084
        51.2504         44.0004
  23792109.6984     586120.73849    443843.16247                  23792109.3904
        40.2504         28.2504
  21335821.0584      34436.94749     20956.20448                  21335820.6364
        51.7504         42.5004
  23082964.1124   -1596215.90049  -1220731.53847                  23082964.8474
        47.0004         32.5004
  22586978.0584     204923.55749    150788.42447                  22586978.0344
        47.7504         35.5004
 02  7  9 20 35 44.9990000  0  7G 3G11G14G18G21G25G31
  23485437.5584     745789.39049    566324.28647                  23485440.1124
        43.7504         30.0004
  23150444.2534   -1620970.94449  -1243666.09547                  23150442.7494
        48.0004         32.7504
  20050183.7144    -218947.52249   -170853.70048                  20050180.6714
        51.0004         44.5004
  23796346.8554     608385.95049    461192.63947                  23796346.7104
        40.7504         27.5004
  21335848.4404      34580.64249     21068.15948                  21335847.2724
        51.0004         42.5004
  23070620.3084   -1661083.43249  -1271277.60847                  23070621.6514
        45.7504         32.0004
  22588457.9254     212700.36149    156848.23947                  22588457.8974
        47.2504         35.0004
 02  7  9 20 35 59.9990000  0  7G 3G11G14G18G21G25G31
  23490627.0194     773056.79549    587571.51747                  23490629.0154
        43.5004         30.5004
  23138393.0264   -1684297.54949  -1293011.48147                  23138391.6634
        47.0004         32.5004
  20048554.2064    -227509.72649   -177525.54948                  20048551.2574
        50.7504         44.5004
  23800567.9094     630569.05849    478478.15447                  23800568.0154
        40.2504         27.7504
  21335865.5264      34670.19249     21137.92048                  21335864.2804
        52.2504         42.2504
  23058263.8394   -1726016.09549  -1321874.39847                  23058265.0424
        45.5004         31.7504
  22589939.4014     220486.27749    162915.15547                  22589939.7494
        47.5004         35.2504
 02  7  9 20 36 14.9990000  0  7G 3G11G14G18G21G25G31
  23495801.7614     800250.94949    608761.68447                  23495804.0154
        44.0004         31.0004
  23126332.9804   -1747673.48249  -1342395.30147                  23126331.9334
        47.0004         32.2504
  20046928.5974    -236055.74049   -184184.77648                  20046925.0154
        52.0004         44.2504
  23804773.4254     652669.48049    495699.21147                  23804773.7724
        38.5004         27.0004
  21335872.0424      34704.73049     21164.82648                  21335871.1054
        51.0004         42.5004
  23045894.7454   -1791014.07549  -1372522.08247                  23045896.5424
        46.2504         32.5004
  22591423.4174     228280.53549    168988.57347                  22591423.0974
        47.5004         36.0004
 02  7  9 20 36 29.9990000  0  7G 3G11G14G18G21G25G31
  23500963.2694     827375.15149    629897.34247                  23500965.5544
        43.5004         30.0004
  23114264.2764   -1811094.86649  -1391814.53647                  23114263.3864
        46.7504         31.7504
  20045306.1124    -244582.13949   -190828.72348                  20045302.8974
        50.5004         44.5004
  23808965.2224     674690.96349    512858.75847                  23808964.0654
        40.0004         28.5004
  21335868.8474      34688.12349     21151.87048                  21335867.4094
        51.0004         42.0004
  23033514.8474   -1856073.45449  -1423217.64047                  23033515.8784
        46.7504         33.0004
  22592908.2694     236086.38549    175071.03047                  22592908.6364
        47.7504         35.5004
 02  7  9 20 36 44.9990000  0  7G 3G11G14G18G21G25G31
  23506111.6514     854431.41849    650980.07147                  23506113.8354
        43.5004         30.2504
  23102187.6054   -1874559.04749  -1441267.12547                  23102186.2264
        46.7504         32.2504
  20043687.5264    -253086.77549   -197455.71048                  20043684.4134
        51.2504         44.2504
  23813140.6984     696635.73149    529958.53047                  23813139.6754
        41.5004         26.7504
  21335856.5194      34622.96449     21101.08248                  21335855.1204
        51.7504         42.0004
  23021122.7064   -1921191.54549  -1473958.91047                  23021124.0264
        46.7504         32.2504
  22594396.3084     243905.97749    181164.18147                  22594396.1594
        47.7504         35.2504
 02  7  9 20 36 59.9990000  0  7G 3G11G14G18G21G25G31
  23511248.5344     881424.17349    672013.29047                  23511250.0344
        43.0004         31.0004
  23090102.8084   -1938060.76749  -1490748.95647                  23090102.3004
        46.5004         32.0004
  20042074.3394    -261564.78949   -204061.95548                  20042071.6204
        51.2504         44.5004
  23817302.6514     718508.59649    547002.26447                  23817302.2334
        40.0004         28.5004
  21335835.9254      34514.04949     21016.20848                  21335834.5424
        51.7504         41.7504
  23008720.8234   -1986363.20549  -1524741.93247                  23008722.1754
        46.0004         32.0004
  22595888.0654     251743.80049    187271.54947                  22595887.7374
        47.7504         35.7504
 02  7  9 20 37 14.9990000  0  7G 3G11G14G18G21G25G31
  23516372.7844     908353.50549    692997.08547                  23516374.3434
        43.5004         30.2504
  23078012.2764   -2001599.34749  -1540259.51247                  23078011.6014
        47.2504         32.2504
  20040465.9334    -270016.06049   -210647.36448                  20040462.9374
        51.5004         44.5004
  23821451.6594     740309.91049    563990.24947                  23821450.5934
        42.0004         27.7504
  21335807.1444      34361.71349     20897.48448                  21335805.7964
        51.0004         42.0004
  22996309.3234   -2051587.75649  -1575566.18847                  22996310.0894
        46.7504         33.0004
  22597383.2224     259600.03049    193393.25747                  22597382.9444
        47.5004         35.0004
 02  7  9 20 37 29.9990000  0  7G 3G11G14G18G21G25G31
  23521485.1364     935216.17649    713928.94347                  23521486.8234
        43.7504         30.5004
  23065913.9724   -2065177.44249  -1589800.85847                  23065912.6164
        46.7504         32.2504
  20038862.0584    -278443.70549   -217214.36348                  20038858.7534
        51.0004         44.5004
  23825586.1284     762036.86649    580920.31247                  23825585.4174
        42.7504         28.5004
  21335769.5424      34163.15149     20742.75348                  21335768.0974
        51.7504         42.0004
  22983886.9564   -2116867.63249  -1626433.54647                  22983887.7224
        47.2504         34.0004
  22598880.6444     267471.36049    199526.73847                  22598881.0584
        46.7504         35.0004
 02  7  9 20 37 44.9990000  0  7G 3G11G14G18G21G25G31
  23526585.0584     962014.96749    734811.02447                  23526586.6674
        43.7504         30.7504
  23053808.3864   -2128791.55549  -1639370.25347                  23053807.1554
        47.0004         32.0004
  20037263.6444    -286844.80949   -223760.67648                  20037260.6244
        51.5004         44.2504
  23829706.7764     783692.59149    597794.86747                  23829706.2654
        41.7504         28.0004
  21335722.9094      33921.61149     20554.52248                  21335722.0814
        51.5004         42.0004
  22971454.6594   -2182199.36049  -1677341.31247                  22971455.6514
        47.0004         33.5004
  22600381.7924     275360.69249    205674.24447                  22600381.9054
        46.5004         35.0004
 02  7  9 20 37 59.9990000  0  7G 3G11G14G18G21G25G31
  23531673.3154     988757.10149    755648.95347                  23531675.6834
        43.0004         31.0004
  23041697.6284   -2192433.74949  -1688961.55947                  23041696.1084
        47.0004         33.0004
  20035671.3554    -295211.86749   -230280.45248                  20035668.3824
        51.7504         44.2504
  23833815.3864     805284.60549    614619.75747                  23833815.6634
        41.7504         28.0004
  21335670.7694      33644.69449     20338.73448                  21335669.6474
        51.2504         42.5004
  22959013.9174   -2247574.88449  -1728283.20047                  22959015.2924
        47.0004         33.0004
  22601887.9644     283275.38549    211841.49647                  22601887.9254
        47.7504         35.0004
 02  7  9 20 38 14.9990000  0  7G 3G11G14G18G21G25G31
  23536750.8704    1015442.07449    776442.33247                  23536753.8194
        43.0004         29.7504
  23029581.6754   -2256104.07849  -1738574.76647                  23029580.1904
        47.5004         33.0004
  20034085.5264    -303545.22949   -236773.98548                  20034082.4644
        50.7504         44.0004
  23837912.2614     826812.75449    631394.86547                  23837912.6874
        41.7504         27.2504
  21335611.3154      33332.35949     20095.34148                  21335610.3124
        51.0004         42.5004
  22946564.8624   -2312994.13749  -1779259.14947                  22946565.8394
        47.7504         33.0004
  22603398.8784     291214.80149    218028.03247                  22603398.8864
        46.5004         34.7504
 02  7  9 20 38 29.9990000  0  7G 3G11G14G18G21G25G31
  23541818.2764    1042070.83449    797191.91947                  23541821.0654
        42.7504         29.2504
  23017460.2764   -2319800.77949  -1788208.53147                  23017459.3744
        46.7504         32.5004
  20032506.1594    -311843.72049   -243240.34748                  20032503.0114
        50.7504         44.0004
  23841997.1204     848278.41949    648121.33547                  23841997.8624
        43.0004         27.0004
  21335545.0034      32985.98349     19825.42148                  21335544.0504
        51.5004         42.0004
  22934108.7694   -2378455.37249  -1830267.85247                  22934109.0384
        47.7504         33.7504
  22604914.2764     299180.11849    224234.73747                  22604915.0114
        46.0004         34.2504
 02  7  9 20 38 44.9990000  0  7G 3G11G14G18G21G25G31
  23546874.9254    1068642.22449    817896.78247                  23546877.1324
        42.2504         29.0004
  23005334.0344   -2383524.39249  -1837863.26347                  23005332.8784
        46.5004         31.7504
  20030933.7694    -320108.31949   -249680.29648                  20030931.1874
        50.7504         44.2504
  23846070.0734     869680.70749    664798.41747                  23846069.5734
        42.2504         27.7504
  21335472.4174      32604.77049     19528.35748                  21335471.5194
        50.7504         42.0004
  22921643.1594   -2443958.97949  -1881309.54747                  22921643.9334
        47.5004         33.7504
  22606435.4094     307170.17749    230460.73647                  22606435.3944
        46.5004         34.5004
 02  7  9 20 38 59.9990000  0  7G 3G11G14G18G21G25G31
  23551921.1754    1095159.60249    838559.60047                  23551923.5654
        43.2504         29.2504
  22993203.7614   -2447270.80549  -1887535.73847                  22993202.6474
        47.5004         31.7504
  20029368.1594    -328335.51649   -256091.10548                  20029365.1714
        50.2504         44.2504
  23850130.8704     891023.32149    681428.94247                  23850131.0034
        41.5004         26.7504
  21335394.3704      32192.39549     19207.01148                  21335393.3704
        51.2504         42.0004
  22909171.0194   -2509500.91849  -1932381.10547                  22909171.9644
        47.5004         33.5004
  22607961.0734     315188.41349    236708.66947                  22607961.0264
        47.0004         34.5004
 02  7  9 20 39 14.9990000  0  7G 3G11G14G18G21G25G31
  23556956.6444    1121620.81749    859178.59047                  23556959.7804
        43.0004         29.2504
  22981068.4644   -2511041.61649  -1937227.26547                  22981067.3354
        47.5004         32.7504
  20027809.4804    -336527.31749   -262474.33148                  20027806.2924
        50.2504         43.5004
  23854181.8784     912304.52649    698011.63547                  23854180.1284
        42.2504         26.7504
  21335309.5034      31747.27449     18860.14548                  21335308.5894
        51.7504         42.2504
  22896690.8944   -2575082.55549  -1983483.59147                  22896691.3234
        47.2504         34.0004
  22609491.9404     323232.69149    242976.90747                  22609491.5504
        47.0004         34.0004
 02  7  9 20 39 29.9990000  0  7G 3G11G14G18G21G25G31
  23561982.7144    1148032.17749    879758.76647                  23561985.8274
        42.5004         29.7504
  22968930.2694   -2574829.77049  -1986932.29447                  22968928.4684
        47.2504         33.0004
  20026258.5194    -344677.25249   -268824.92348                  20026255.3784
        50.7504         44.5004
  23858220.7304     933530.96449    714551.68447                  23858219.5654
        41.2504         27.5004
  21335219.5034      31275.93749     18492.85548                  21335218.7224
        51.0004         42.0004
  22884205.2844   -2640696.96949  -2034611.65147                  22884205.6444
        48.0004         34.2504
  22611028.4564     331309.41849    249270.43347                  22611028.4014
        47.0004         34.7504
 02  7  9 20 39 44.9990000  0  7G 3G11G14G18G21G25G31
  23566998.6444    1174393.54049    900299.97647                  23567001.6054
        44.0004         29.2504
  22956788.4484   -2638634.76149  -2036650.44647                  22956787.4994
        48.0004         33.0004
  20024715.4954    -352785.07549   -275142.71248                  20024712.2264
        51.2504         44.2504
  23862249.3944     954702.82149    731049.20847                  23862248.1984
        42.5004         26.7504
  21335125.2064      30778.67249     18105.37148                  21335124.3274
        51.5004         42.0004
  22871713.3394   -2706343.61849  -2085764.81047                  22871713.5504
        47.0004         34.0004
  22612572.3394     339418.46049    255589.14547                  22612571.4954
        47.2504         34.5004
 02  7  9 20 39 59.9990000  0  7G 3G11G14G18G21G25G31
  23572006.5734    1200703.68449    920801.27547                  23572008.3624
        44.5004         30.7504
  22944643.6364   -2702457.10049  -2086382.10947                  22944642.2884
        47.2504         34.0004
  20023180.5504    -360851.93849   -281428.58248                  20023177.3554
        51.7504         45.0004
  23866267.2224     975819.34049    747503.59347                  23866267.4524
        42.5004         27.2504
  21335025.7844      30254.74849     17697.09048                  21335024.4724
        52.0004         42.0004
  22859214.8314   -2772022.89449  -2136943.39347                  22859215.0894
        47.5004         34.5004
  22614121.4874     347558.76749    261932.20247                  22614121.1404
        46.7504         34.2504
 02  7  9 20 40 14.9990000  0  7G 3G11G14G18G21G25G31
  23577003.1594    1226962.58349    941262.65647                  23577005.4724
        44.0004         30.0004
  22932495.7304   -2766296.16749  -2136126.81447                  22932494.2454
        48.0004         32.5004
  20021653.2694    -368877.64349   -287682.37848                  20021650.5624
        51.5004         44.7504
  23870275.4954     996880.82849    763915.09147                  23870275.2144
        42.5004         26.5004
  21334920.5974      29704.67749     17268.45548                  21334919.6324
        51.7504         41.7504
  22846710.0344   -2837734.09649  -2188146.85747                  22846710.9294
        47.5004         35.0004
  22615676.0894     355730.35249    268299.63547                  22615676.3234
        47.0004         33.7504
 02  7  9 20 40 29.9990000  0  7G 3G11G14G18G21G25G31
  23581990.3394    1253170.73949    961684.47247                  23581992.3864
        44.2504         29.0004
  22920344.0654   -2830150.78649  -2185883.63647                  22920342.6874
        48.2504         33.2504
  20020134.0584    -376861.60249   -293903.65048                  20020130.7104
        50.7504         45.0004
  23874273.0584    1017887.99249    780284.25747                  23874272.6474
        42.0004         28.2504
  21334811.3624      29129.36049     16820.15048                  21334810.0464
        51.5004         41.7504
  22834199.9174   -2903476.10349  -2239374.30447                  22834200.9294
        47.0004         33.5004
  22617236.8554     363933.73049    274691.84247                  22617237.0344
        46.2504         34.0004
 02  7  9 20 40 44.9990000  0  7G 3G11G14G18G21G25G31
  23586968.2224    1279328.42749    982066.97847                  23586970.7374
        44.0004         29.5004
  22908190.3084   -2894020.10049  -2235651.90547                  22908188.5584
        48.0004         33.0004
  20018622.7534    -384803.37549   -300092.04448                  20018620.0854
        51.0004         45.0004
  23878260.2764    1038841.53749    796611.68147                  23878260.6054
        43.7504         27.0004
  21334697.3784      28529.45449     16352.68148                  21334696.4804
        51.7504         41.7504
  22821683.3474   -2969247.86149  -2290624.96947                  22821684.6164
        46.2504         33.5004
  22618804.0654     372169.14849    281109.01747                  22618804.1324
        46.5004         34.0004
 02  7  9 20 40 59.9990000  0  7G 3G11G14G18G21G25G31
  23591937.1054    1305441.89649   1002415.00947                  23591939.6324
        44.2504         28.2504
  22896034.7764   -2957897.15749  -2285426.20347                  22896033.0584
        48.5004         33.5004
  20017120.6284    -392696.39849   -306242.45648                  20017117.6084
        51.0004         44.5004
  23882238.8864    1059748.00149    812902.36047                  23882238.7724
        43.0004         27.2504
  21334579.5974      27911.35449     15871.03048                  21334578.0034
        51.5004         41.5004
  22809163.4404   -3035042.46549  -2341893.41847                  22809164.0894
        46.7504         34.0004
  22620378.7374     380442.96049    287556.11547                  22620378.3514
        46.5004         34.7504
 02  7  9 20 41 14.9990000  0  7G 3G11G14G18G21G25G31
  23596897.2694    1331508.54049   1022726.57147                  23596900.3554
        44.2504         28.5004
  22883877.7534   -3021783.94849  -2335208.09247                  22883876.4724
        48.7504         33.5004
  20015627.5424    -400543.23449   -312356.87848                  20015624.5894
        51.2504         44.2504
  23886207.1904    1080605.19849    829154.68047                  23886207.4094
        43.7504         27.2504
  21334458.1364      27272.98849     15373.59348                  21334456.8624
        51.2504         41.5004
  22796638.3154   -3100861.76149  -2393181.11447                  22796639.2224
        46.2504         35.0004
  22621960.4254     388752.60549    294031.12347                  22621959.7374
        46.2504         34.5004
 02  7  9 20 41 29.9990000  0  7G 3G11G14G18G21G25G31
  23601849.1594    1357529.27049   1043002.34647                  23601851.7104
        43.0004         29.5004
  22871718.5814   -3085678.86649  -2384996.32647                  22871716.7764
        48.0004         33.7504
  20014143.1754    -408342.84049   -318434.50148                  20014140.0114
        51.5004         44.5004
  23890167.4644    1101414.27749    845369.49547                  23890167.7724
        43.5004         27.0004
  21334332.8314      26615.61749     14861.33648                  21334331.6594
        51.2504         41.5004
  22784109.0654   -3166704.29449  -2444486.93247                  22784109.8004
        45.7504         35.0004
  22623548.3864     397098.95149    300534.74147                  22623548.2924
        46.5004         34.5004
 02  7  9 20 41 44.9990000  0  7G 3G11G14G18G21G25G31
  23606793.0894    1383507.41449   1063244.94647                  23606795.1834
        44.0004         29.2504
  22859559.2454   -3149578.08849  -2434787.89147                  22859557.0894
        49.0004         34.0004
  20012668.6124    -416091.80049   -324472.65148                  20012665.9524
        51.7504         44.5004
  23894118.7534    1122178.79049    861549.56847                  23894118.9524
        44.5004         26.7504
  21334205.0194      25943.03449     14337.24148                  21334203.5694
        52.0004         41.7504
  22771575.5264   -3232566.07349  -2495807.70347                  22771576.3864
        46.0004         34.7504
  22625144.1124     405485.22449    307069.46547                  22625144.0894
        45.5004         33.0004
 02  7  9 20 41 59.9990000  0  7G 3G11G14G18G21G25G31
  23611728.3554    1409441.42649   1083453.14047                  23611730.6554
        43.5004         28.0004
  22847398.5264   -3213482.46549  -2484583.50047                  22847396.1634
        48.5004         33.7504
  20011203.3314    -423791.42649   -330472.35948                  20011200.2334
        50.7504         44.5004
  23898061.3784    1142897.74949    877694.17947                  23898061.5074
        44.0004         26.7504
  21334074.2304      25254.05749     13800.36748                  21334072.7064
        52.2504         41.5004
  22759038.7304   -3298447.86849  -2547144.11247                  22759039.6754
        47.0004         34.7504
  22626747.6054     413910.08549    313634.25947                  22626747.5264
        45.2504         34.0004
 02  7  9 20 42 14.9990000  0  7G 3G11G14G18G21G25G31
  23616653.9644    1435327.31149   1103623.84947                  23616656.6284
        44.0004         28.2504
  22835236.1124   -3277395.28349  -2534385.65747                  22835234.4994
        48.5004         33.2504
  20009747.0034    -431445.56349   -336436.62648                  20009743.6944
        51.2504         44.5004
  23901995.1284    1163567.43749    893800.40547                  23901994.8394
        44.7504         29.2504
  21333938.7614      24545.03849     13247.86648                  21333937.9724
        51.2504         41.2504
  22746497.7144   -3364352.77449  -2598498.52647                  22746498.4294
        46.5004         35.0004
  22628357.3474     422369.58849    320226.04647                  22628356.9564
        45.7504         34.0004
 02  7  9 20 42 29.9990000  0  7G 3G11G14G18G21G25G31
  23621570.1904    1461163.85049   1123756.09647                  23621572.8004
        44.0004         29.2504
  22823072.1674   -3341316.97549  -2584194.74447                  22823070.3394
        48.7504         33.5004
  20008298.9254    -439055.19849   -342366.21348                  20008296.1794
        51.2504         44.5004
  23905918.5974    1184187.09449    909867.62547                  23905918.7224
        44.5004         28.0004
  21333800.3394      23815.29649     12679.22448                  21333799.0224
        51.2504         42.0004
  22733951.5034   -3430281.40149  -2649871.40647                  22733952.4954
        46.2504         35.5004
  22629973.0654     430862.59349    326843.92247                  22629973.4724
        44.5004         34.0004
 02  7  9 20 42 44.9990000  0  7G 3G11G14G18G21G25G31
  23626479.5264    1486956.26449   1143853.96047                  23626481.6474
        44.2504         28.7504
  22810907.9954   -3405241.73549  -2634006.21647                  22810906.3974
        48.5004         34.0004
  20006860.4254    -446614.84049   -348256.84348                  20006857.3154
        50.7504         45.0004
  23909834.5734    1204762.28449    925900.19247                  23909834.3744
        44.2504         27.5004
  21333658.2844      23070.87349     12099.14448                  21333657.3004
        51.0004         41.7504
  22721402.7924   -3496227.65949  -2701258.03947                  22721402.7534
        47.0004         35.5004
  22631596.6904     439394.46249    333492.10947                  22631596.8554
        44.5004         33.5004
 02  7  9 20 42 59.9990000  0  7G 3G11G14G18G21G25G31
  23631378.5974    1512701.91649   1163915.39147                  23631381.0774
        43.7504         29.7504
  22798742.5344   -3469171.45949  -2683821.57347                  22798740.3314
        48.7504         34.5004
  20005430.5424    -454126.92949   -354110.42648                  20005427.9684
        50.7504         44.5004
  23913740.6124    1225290.61549    941896.26347                  23913740.9644
        44.5004         28.0004
  21333513.5504      22309.08549     11505.52148                  21333512.5814
        51.5004         42.0004
  22708849.3704   -3562193.75049  -2752660.11147                  22708850.1124
        47.2504         35.7504
  22633227.5654     447962.43149    340168.41147                  22633227.1794
        45.5004         33.5004
 02  7  9 20 43 14.9990000  0  7G 3G11G14G18G21G25G31
  23636269.0584    1538403.37549   1183942.37747                  23636271.9484
        43.7504         28.7504
  22786576.3864   -3533103.04949  -2733638.35647                  22786575.0974
        49.0004         34.2504
  20004011.0264    -461588.96049   -359924.99748                  20004008.1874
        51.0004         44.5004
  23917638.6754    1245774.97749    957858.03447                  23917639.1204
        44.5004         27.5004
  21333365.8084      21532.87449     10900.67048                  21333364.8314
        51.2504         41.7504
  22696293.3314   -3628176.33349  -2804075.05147                  22696294.0504
        47.0004         36.2504
  22634865.5264     456569.14749    346874.90747                  22634864.8584
        45.5004         33.7504
 02  7  9 20 43 29.9990000  0  7G 3G11G14G18G21G25G31
  23641151.5584    1564056.86949   1203931.99347                  23641153.8624
        44.0004         29.7504
  22774409.6204   -3597039.60949  -2783459.03347                  22774407.7804
        48.5004         34.2504
  20002599.5424    -469004.44449   -365703.30848                  20002596.6554
        51.0004         44.7504
  23921527.8944    1266211.97049    973782.89347                  23921527.9954
        44.0004         27.0004
  21333214.5264      20738.67649     10281.79048                  21333213.2184
        51.2504         42.5004
  22683733.3474   -3694178.43549  -2855505.20247                  22683733.9214
        46.7504         35.2504
  22636509.8784     465210.83049    353608.63947                  22636509.5224
        45.2504         34.0004
 02  7  9 20 43 44.9990000  0  7G 3G11G14G18G21G25G31
  23646024.9094    1589668.54249   1223889.04347                  23646028.0224
        44.5004         29.5004
  22762243.8554   -3660974.35349  -2833278.29847                  22762241.6054
        48.5004         34.0004
  20001198.5734    -476367.12349   -371440.45648                  20001195.6084
        50.5004         44.7504
  23925409.4174    1286608.06249    989675.91447                  23925408.8824
        44.0004         26.0004
  21333061.2844      19933.04749      9654.01848                  21333060.4804
        51.7504         42.5004
  22671170.8314   -3760193.13449  -2906945.15847                  22671171.1874
        47.0004         36.0004
  22638162.1984     473893.68649    360374.46147                  22638161.9604
        46.5004         34.0004
 02  7  9 20 43 59.9990000  0  7G 3G11G14G18G21G25G31
  23650890.6444    1615240.41949   1243815.05347                  23650894.6244
        43.0004         29.2504
  22750078.0194   -3724904.44849  -2883093.93647                  22750076.3824
        48.0004         34.0004
  19999807.7844    -483674.56549   -377134.57848                  19999804.9684
        50.5004         44.5004
  23929283.2844    1306965.67549   1005538.94747                  23929282.8154
        44.7504         26.7504
  21332906.4484      19118.88549      9019.58648                  21332905.3234
        50.7504         42.7504
  22658607.3154   -3826217.80649  -2958392.88947                  22658607.9724
        47.5004         36.5004
  22639822.3784     482619.83049    367174.02747                  22639822.0894
        45.7504         33.5004
 02  7  9 20 44 14.9990000  0  7G 3G11G14G18G21G25G31
  23655749.0734    1640768.72849   1263707.11947                  23655752.0154
        43.0004         29.2504
  22737912.9094   -3788833.09949  -2932908.44647                  22737911.1404
        47.7504         33.7504
  19998426.9954    -490930.57149   -382788.60648                  19998424.2574
        50.7504         44.5004
  23933149.3314    1327281.37849   1021369.33247                  23933148.8784
        44.5004         26.2504
  21332749.3624      18292.70649      8375.79748                  21332748.0584
        52.0004         42.0004
  22646040.5424   -3892255.39149  -3009850.67047                  22646040.8864
        47.5004         36.5004
  22641490.6054     491385.55049    374004.42147                  22641490.6474
        46.0004         34.0004
 02  7  9 20 44 29.9990000  0  7G 3G11G14G18G21G25G31
  23660598.6124    1666253.13249   1283564.93547                  23660602.2844
        43.2504         28.7504
  22725747.4254   -3852760.02249  -2982721.60747                  22725745.7534
        48.2504         34.0004
  19997056.0504    -498135.31749   -388402.70348                  19997053.5734
        51.0004         45.0004
  23937006.3474    1347555.20749   1037167.06547                  23937006.2694
        44.0004         25.7504
  21332589.9874      17454.39949      7722.56448                  21332588.7454
        51.5004         43.0004
  22633471.2454   -3958305.53649  -3061318.24947                  22633471.8124
        47.2504         35.5004
  22643166.2534     500190.49449    380865.36647                  22643166.6904
        46.5004         33.0004
 02  7  9 20 44 44.9990000  0  7G 3G11G14G18G21G25G31
  23665439.4404    1691689.68949   1303385.52247                  23665442.3004
        42.7504         27.5004
  22713582.5034   -3916688.46749  -3032535.95047                  22713580.8784
        48.5004         34.5004
  19995694.1904    -505292.69749   -393979.88848                  19995691.7844
        50.7504         44.7504
  23940856.4484    1367783.51349   1052929.35747                  23940856.0194
        43.5004         25.7504
  21332427.5504      16600.59549      7057.24348                  21332426.3154
        52.5004         42.2504
  22620899.1834   -4024371.52149  -3112798.18647                  22620899.6634
        48.5004         36.2504
  22644848.9174     509030.67749    387753.78947                  22644848.8744
        46.0004         33.2504
 02  7  9 20 44 59.9990000  0  7G 3G11G14G18G21G25G31
  23670271.2064    1717086.46549   1323175.11847                  23670275.3434
        42.5004         28.0004
  22701418.9954   -3980609.75149  -3082344.71447                  22701417.2694
        48.0004         34.0004
  19994342.5344    -512394.31549   -399513.62648                  19994340.0694
        50.5004         45.2504
  23944698.5654    1387974.88349   1068662.80746                  23944698.9214
        44.5004         25.0004
  21332263.7224      15739.45549      6386.21348                  21332262.8664
        51.0004         42.2504
  22608326.1364   -4090444.64149  -3164283.66447                  22608326.2264
        47.7504         37.0004
  22646539.4404     517914.34149    394676.08647                  22646539.5584
        46.0004         34.2504
 02  7  9 20 45 14.9990000  0  7G 3G11G14G18G21G25G31
  23675097.6514    1742440.86149   1342931.64747                  23675100.9524
        42.0004         27.5004
  22689255.7374   -4044525.72949  -3132149.33847                  22689254.3234
        48.2504         34.0004
  19993001.4644    -519442.61949   -405005.81548                  19992998.7534
        50.5004         45.0004
  23948533.9484    1408126.90749   1084365.67746                  23948533.8944
        44.0004         24.5004
  21332098.2224      14869.10049      5707.99948                  21332096.6474
        52.2504         42.0004
  22595751.1754   -4156526.71049  -3215776.10847                  22595751.1084
        46.7504         36.5004
  22648237.4564     526838.65749    401630.06147                  22648237.9684
        45.5004         34.0004
 02  7  9 20 45 29.9990000  0  7G 3G11G14G18G21G25G31
  23679913.3474    1767749.47049   1362652.49047                  23679916.3194
        42.0004         27.0004
  22677093.3944   -4108439.13849  -3181951.97147                  22677092.0734
        48.7504         33.7504
  19991670.0034    -526440.86049   -410458.99448                  19991667.2884
        50.7504         45.5004
  23952360.2304    1428236.59249   1100035.50946                  23952360.7724
        43.5004         24.2504
  21331930.0034      13986.49749      5020.24448                  21331929.0344
        51.5004         42.5004
  22583173.8394   -4222620.21149  -3267277.48047                  22583174.4094
        47.5004         36.5004
  22649942.8004     535800.57549    408613.33247                  22649943.0224
        46.5004         33.5004
 02  7  9 20 45 44.9990000  0  7G 3G11G14G18G21G25G31
  23684721.6594    1793019.86949   1382343.60247                  23684725.3624
        42.0004         27.5004
  22664933.0264   -4172341.84049  -3231746.26047                  22664931.5074
        48.2504         33.7504
  19990348.9094    -533381.30249   -415867.12948                  19990346.4484
        51.0004         44.7504
  23956180.5034    1448311.77249   1115678.46746                  23956180.5304
        43.2504         22.5004
  21331761.1984      13099.41949      4329.00748                  21331759.9604
        52.5004         41.7504
  22570596.2144   -4288717.18649  -3318781.55247                  22570596.1944
        46.5004         36.7504
  22651656.8554     544807.43049    415631.62647                  22651657.1124
        46.0004         34.0004
 02  7  9 20 45 59.9990000  0  7G 3G11G14G18G21G25G31
  23689523.4644    1818250.99949   1402004.08447                  23689526.9684
        42.0004         27.7504
  22652774.3314   -4236234.24149  -3281532.51747                  22652772.8704
        48.2504         34.2504
  19989038.9954    -540264.96349   -421231.01948                  19989036.1324
        50.5004         44.5004
  23959994.1594    1468351.54949   1131293.82746                  23959993.7844
        43.7504         22.7504
  21331591.3554      12207.22649      3633.77548                  21331590.3044
        51.5004         42.0004
  22558017.6204   -4354817.95049  -3370288.57947                  22558017.9444
        46.2504         37.0004
  22653379.0814     553858.28049    422684.18347                  22653379.4724
        44.7504         34.0004
 02  7  9 20 46 14.9990000  0  7G 3G11G14G18G21G25G31
  23694316.3784    1843439.55649   1421631.42247                  23694320.2144
        41.7504         27.5004
  22640617.8314   -4300118.92749  -3331312.77147                  22640616.3084
        48.5004         34.0004
  19987739.6754    -547094.78149   -426552.95248                  19987736.6554
        50.0004         44.7504
  23963800.6904    1488353.23349   1146879.53046                  23963800.3234
        43.5004         21.5004
  21331419.5344      11307.17549      2932.42348                  21331418.9724
        51.2504         41.5004
  22545437.5734   -4420925.00949  -3421800.50047                  22545438.1674
        45.2504         36.5004
  22655109.0894     562949.98249    429768.60147                  22655109.5894
        45.2504         34.0004
 02  7  9 20 46 29.9990000  0  7G 3G11G14G18G21G25G31
  23699102.1364    1868588.72949   1441228.03947                  23699106.1944
        40.5004         27.2504
  22628463.0424   -4363992.06149  -3381084.01547                  22628461.1984
        48.7504         34.0004
  19986450.6284    -553867.65749   -431830.52248                  19986447.7924
        49.7504         44.5004
  23967599.9644    1508320.29749   1162438.20146                  23967600.1054
        43.2504         22.7504
  21331247.7614      10402.81049      2227.70848                  21331247.0154
        51.0004         41.5004
  22532857.2924   -4487034.56949  -3473314.39647                  22532857.8824
        46.0004         36.7504
  22656847.9334     572085.54949    436887.18447                  22656848.1164
        44.0004         33.7504
 02  7  9 20 46 44.9990000  0  7G 3G11G14G18G21G25G31
  23703879.8864    1893695.75949   1460791.82147                  23703884.2844
        41.0004         27.2504
  22616309.8864   -4427855.75349  -3430847.90647                  22616308.7184
        47.7504         34.2504
  19985172.3314    -560586.16649   -437065.72148                  19985169.1904
        50.5004         44.5004
  23971392.9254    1528250.26549   1177968.05646                  23971393.2184
        43.0004         22.0004
  21331074.5974       9491.77449      1517.78448                  21331073.2694
        51.0004         41.0004
  22520276.1364   -4553148.58449  -3524831.73647                  22520277.0384
        45.0004         36.5004
  22658594.2764     581262.34749    444037.90447                  22658594.5344
        45.2504         34.0004
 02  7  9 20 46 59.9990000  0  7G 3G11G14G18G21G25G31
  23708651.1124    1918762.03149   1480323.85147                  23708653.9334
        41.2504         27.0004
  22604159.8944   -4491707.95649  -3480602.84647                  22604158.1634
        49.0004         34.2504
  19983903.9804    -567248.67449   -442257.28648                  19983901.2104
        50.0004         44.0004
  23975178.7304    1548144.87149   1193470.29846                  23975178.3864
        42.7504         21.7504
  21330900.4954       8575.93349       804.13448                  21330899.3314
        51.2504         41.2504
  22507694.9254   -4619265.17049  -3576351.07347                  22507695.2024
        46.5004         37.0004
  22660348.4644     590481.71649    451221.77347                  22660348.8824
        44.0004         34.0004
 02  7  9 20 47 14.9990000  0  7G 3G11G14G18G21G25G31
  23713412.4564    1943786.08149   1499822.99947                  23713416.3354
        41.0004         27.5004
  22592011.0034   -4555549.48049  -3530349.45747                  22592009.4404
        49.5004         34.5004
  19982646.8394    -573856.53349   -447406.26748                  19982643.7494
        49.7504         44.2504
  23978957.7694    1568003.03849   1208944.14546                  23978957.1984
        43.0004         21.0004
  21330724.3554       7654.05349        85.77348                  21330723.5624
        51.5004         41.7504
  22495112.5584   -4685384.97149  -3627872.94247                  22495112.8434
        45.7504         36.7504
  22662110.5114     599742.24549    458437.77147                  22662110.6874
        43.5004         33.5004
 02  7  9 20 47 29.9990000  0  7G 3G11G14G18G21G25G31
  23718166.2144    1968764.94949   1519286.89447                  23718169.6404
        39.7504         27.0004
  22579863.9724   -4619382.60649  -3580089.53347                  22579862.1324
        49.5004         35.0004
  19981398.7694    -580412.52649   -452514.85248                  19981396.1444
        49.5004         44.5004
  23982727.7534    1587822.18549   1224387.55346                  23982728.5114
        43.0004         21.5004
  21330548.0114       6723.71249      -639.19548                  21330547.0194
        51.5004         41.7504
  22482529.0654   -4751510.25649  -3679399.09247                  22482529.4254
        46.0004         36.5004
  22663880.0194     609040.99149    465683.48347                  22663880.9834
        43.5004         33.0004
 02  7  9 20 47 44.9990000  0  7G 3G11G14G18G21G25G31
  23722911.0344    1993699.60049   1538716.36747                  23722914.8274
        40.5004         28.2504
  22567718.7924   -4683205.77349  -3629821.84747                  22567716.7884
        49.5004         35.0004
  19980161.7764    -586915.60749   -457582.18348                  19980159.6284
        49.5004         44.2504
  23986493.6514    1607603.52849   1239801.64246                  23986493.2144
        43.0004         22.5004
  21330369.8704       5786.12349     -1369.77948                  21330369.0974
        51.0004         41.7504
  22469945.1514   -4817639.19349  -3730928.04847                  22469945.7844
        45.7504         36.2504
  22665657.2304     618378.93849    472959.76947                  22665657.2964
        43.0004         33.5004
 02  7  9 20 47 59.9990000  0  7G 3G11G14G18G21G25G31
  23727648.9724    2018598.90749   1558118.27347                  23727653.3744
        41.2504         27.2504
  22555577.3944   -4747009.46449  -3679538.99947                  22555575.6874
        48.7504         35.0004
  19978936.0894    -593356.79549   -462601.30248                  19978933.5654
        49.7504         44.0004
  23990251.7064    1627356.19249   1255193.24746                  23990252.3274
        42.7504         22.5004
  21330191.4484       4850.66849     -2098.72948                  21330190.3704
        51.0004         42.0004
  22457361.6984   -4883762.35949  -3782452.53947                  22457362.2184
        46.2504         36.2504
  22667442.9804     627764.94449    480273.49147                  22667443.8664
        43.0004         34.0004
 02  7  9 20 48 14.9990000  0  7G 3G11G14G18G21G25G31
  23732379.9014    2043459.09449   1577489.70347                  23732384.1754
        41.5004         29.0004
  22543439.0654   -4810796.75349  -3729243.36147                  22543437.2694
        48.0004         34.2504
  19977721.4334    -599739.58649   -467574.91248                  19977718.6674
        50.2504         44.7504
  23994004.6444    1647076.92049   1270559.99246                  23994005.5154
        42.5004         22.0004
  21330013.3784       3914.11349     -2828.53348                  21330012.5264
        52.0004         42.0004
  22444780.0734   -4949882.93649  -3833974.99447                  22444779.8474
        46.5004         36.5004
  22669237.9014     637195.20849    487621.70247                  22669238.4334
        43.7504         33.0004
 02  7  9 20 48 29.9990000  0  7G 3G11G14G18G21G25G31
  23737102.2614    2068274.01349   1596825.87047                  23737106.4214
        41.5004         28.7504
  22531302.7844   -4874573.04049  -3778939.14247                  22531300.8154
        48.5004         35.5004
  19976516.8554    -606069.95649   -472507.67348                  19976514.2104
        50.0004         44.7504
  23997750.4014    1666759.83149   1285897.25446                  23997750.7764
        42.5004         21.2504
  21329833.7764       2970.67649     -3563.67748                  21329832.8744
        51.7504         42.0004
  22432197.1594   -5016006.09849  -3885499.46547                  22432196.8434
        45.5004         37.5004
  22671039.3154     646663.80649    494999.81247                  22671039.9374
        44.5004         33.5004
 02  7  9 20 48 44.9990000  0  7G 3G11G14G18G21G25G31
  23741817.8624    2093051.37449   1616132.76047                  23741821.0224
        41.5004         29.2504
  22519170.1284   -4938330.01649  -3828619.89947                  22519168.3514
        49.5004         35.5004
  19975323.6904    -612340.16349   -477393.55148                  19975320.9644
        50.2504         45.0004
  24001490.5034    1686412.98649   1301211.36346                  24001490.1054
        43.0004         20.5004
  21329654.5734       2028.43449     -4297.91948                  21329653.7884
        51.5004         42.0004
  22419614.8624   -5082123.49849  -3937019.45947                  22419615.0734
        46.5004         37.2504
  22672850.3314     656178.35849    502413.69847                  22672851.1944
        43.7504         34.0004
 02  7  9 20 48 59.9990000  0  7G 3G11G14G18G21G25G31
  23746525.1834    2117790.13249   1635409.58047                  23746528.8624
        41.2504         30.2504
  22507041.5504   -5002068.08849  -3878285.91247                  22507039.2654
        49.0004         35.5004
  19974141.8944    -618551.00749   -482233.17048                  19974139.4014
        49.2504         45.0004
  24005224.9644    1706035.77149   1316501.72646                  24005224.4994
        43.5004         20.0004
  21329475.2374       1086.62949     -5031.80848                  21329474.1404
        51.7504         41.7504
  22407034.2924   -5148235.61149  -3988535.32647                  22407034.5344
        46.0004         37.0004
  22674669.2694     665737.87349    509862.63147                  22674669.9444
        42.7504         33.7504
 02  7  9 20 49 14.9990000  0  7G 3G11G14G18G21G25G31
  23751224.6834    2142482.61549   1654650.31247                  23751228.1944
        40.0004         30.2504
  22494914.8004   -5065794.35549  -3927942.72447                  22494913.1754
        49.2504         35.5004
  19972969.6284    -624710.03949   -487032.41548                  19972967.0154
        49.7504         45.5004
  24008951.4804    1725620.87049   1331762.89246                  24008951.8624
        42.0004         20.2504
  21329294.6904        137.95249     -5771.05148                  21329293.9334
        52.0004         42.5004
  22394453.3864   -5214349.22549  -4040052.36347                  22394453.7884
        45.7504         37.5004
  22676495.2844     675334.60449    517340.57447                  22676496.1714
        43.7504         34.7504
 02  7  9 20 49 29.9990000  0  7G 3G11G14G18G21G25G31
  23755915.3864    2167137.78449   1673861.99247                  23755920.2534
        41.5004         29.2504
  22482792.0194   -5129499.05049  -3977582.72247                  22482790.2574
        49.0004         35.5004
  19971809.2144    -630808.08549   -491784.14448                  19971806.8624
        49.2504         44.7504
  24012672.5504    1745177.45049   1347001.69946                  24012672.8554
        43.0004         20.2504
  21329114.7374       -808.14849     -6508.28648                  21329113.6674
        51.5004         42.0004
  22381873.7844   -5280454.76249  -4091563.09647                  22381873.8974
        46.2504         37.7504
  22678330.8084     684977.60449    524854.54447                  22678331.5194
        44.5004         33.7504
 02  7  9 20 49 44.9990000  0  7G 3G11G14G18G21G25G31
  23760599.8234    2191751.48149   1693041.37147                  23760603.7694
        41.2504         29.2504
  22470672.9334   -5193185.77449  -4027208.74147                  22470671.0584
        49.2504         35.5004
  19970659.6984    -636849.23349   -496491.53648                  19970656.8004
        50.5004         45.2504
  24016388.4014    1764701.75549   1362215.46046                  24016388.5154
        42.2504         19.5004
  21328934.6364      -1755.43949     -7246.44948                  21328933.8824
        52.0004         41.7504
  22369294.9404   -5346555.81049  -4143070.34447                  22369294.8824
        46.0004         37.2504
  22680173.8004     694662.66549    532401.30547                  22680174.3704
        44.5004         34.2504
 02  7  9 20 49 59.9990000  0  7G 3G11G14G18G21G25G31
  23765276.0264    2216319.26549   1712184.96447                  23765279.4404
        42.0004         28.5004
  22458556.1674   -5256858.26749  -4076823.62947                  22458555.0154
        48.5004         36.0004
  19969520.1594    -642837.87449   -501157.99448                  19969517.2574
        50.5004         45.0004
  24020096.9254    1784189.61049   1377400.69246                  24020096.6404
        42.5004         20.2504
  21328753.1054      -2707.96949     -7988.68248                  21328752.2224
        51.5004         41.7504
  22356716.6514   -5412656.09749  -4194576.97847                  22356716.8274
        46.2504         37.5004
  22682024.1054     704385.40849    539977.43847                  22682024.8664
        45.5004         34.5004
 02  7  9 20 50 14.9990000  0  7G 3G11G14G18G21G25G31
  23769942.5814    2240842.75449   1731294.00647                  23769946.5464
        42.0004         29.5004
  22446443.1674   -5320514.51249  -4126425.89047                  22446441.7534
        49.5004         35.7504
  19968390.9334    -648772.29549   -505782.22348                  19968387.8194
        50.0004         44.5004
  24023798.4094    1803642.91549   1392559.06246                  24023799.1324
        42.5004         20.7504
  21328571.4564      -3663.70649     -8733.43948                  21328570.8944
        52.0004         42.0004
  22344139.3314   -5478753.26249  -4246081.20547                  22344139.5654
        46.0004         37.7504
  22683882.1834     714147.32249    547584.07847                  22683882.3554
        44.5004         34.0004
 02  7  9 20 50 29.9990000  0  7G 3G11G14G18G21G25G31
  23774601.5504    2265328.22049   1750373.46347                  23774606.4444
        41.2504         29.7504
  22434334.1834   -5384147.37449  -4176009.91647                  22434332.1904
        48.5004         35.7504
  19967272.8234    -654646.00749   -510359.13648                  19967270.2654
        49.0004         44.7504
  24027495.3314    1823068.25349   1407695.61146                  24027495.4604
        42.5004         20.7504
  21328390.1444      -4616.07149     -9475.55148                  21328388.9834
        51.0004         41.5004
  22331562.9334   -5544840.35249  -4297577.56547                  22331563.0344
        46.2504         37.5004
  22685747.6754     723954.69549    555226.15047                  22685748.8824
        43.5004         34.2504
 02  7  9 20 50 44.9990000  0  7G 3G11G14G18G21G25G31
  23779252.8864    2289769.55249   1769418.50247                  23779257.0224
        41.2504         27.7504
  22422228.8704   -5447762.24649  -4225579.93647                  22422226.9484
        48.7504         36.2504
  19966165.5734    -660464.85349   -514893.31948                  19966163.3554
        49.2504         44.5004
  24031185.2144    1842460.06049   1422806.05146                  24031185.2534
        42.2504         21.0004
  21328208.4954      -5570.59849    -10219.35848                  21328207.9134
        50.7504         41.2504
  22318987.5344   -5610922.65249  -4349070.20247                  22318987.6754
        46.5004         36.7504
  22687621.7374     733801.62949    562899.03447                  22687622.2574
        43.7504         34.0004
 02  7  9 20 50 59.9990000  0  7G 3G11G14G18G21G25G31
  23783895.0654    2314169.43849   1788431.24947                  23783899.6754
        41.2504         29.0004
  22410126.6054   -5511355.88049  -4275133.37847                  22410125.9054
        48.7504         35.5004
  19965069.1984    -666226.03749   -519382.55148                  19965066.6944
        49.5004         44.7504
  24034869.5974    1861821.42549   1437892.82646                  24034869.5464
        42.5004         22.0004
  21328027.0584      -6524.06949    -10962.33648                  21328026.8434
        51.0004         41.2504
  22306413.8004   -5676996.85849  -4400556.52047                  22306413.6014
        47.0004         37.2504
  22689503.8474     743690.64449    570604.72747                  22689503.7494
        45.0004         34.2504
 02  7  9 20 51 14.9990000  0  7G 3G11G14G18G21G25G31
  23788531.3944    2338526.72549   1807410.82747                  23788534.9804
        41.2504         28.7504
  22398029.2614   -5574928.63549  -4324670.58047                  22398027.8004
        48.0004         35.2504
  19963983.9954    -671930.62249   -523827.68548                  19963981.2764
        49.5004         44.5004
  24038547.7064    1881151.47349   1452955.12646                  24038548.2574
        43.0004         22.5004
  21327845.5424      -7477.31849    -11705.14948                  21327844.7614
        51.0004         41.0004
  22293842.1364   -5743063.37749  -4452036.85747                  22293841.7414
        47.2504         38.0004
  22691393.1754     753620.77649    578342.43647                  22691393.9094
        43.2504         33.5004
 02  7  9 20 51 29.9990000  0  7G 3G11G14G18G21G25G31
  23793158.0814    2362841.04449   1826356.86447                  23793162.3474
        40.2504         27.2504
  22385935.5814   -5638480.33149  -4374191.35547                  22385934.5814
        48.0004         35.0004
  19962908.9094    -677578.89949   -528228.93848                  19962906.7804
        50.0004         44.2504
  24042220.5194    1900450.10849   1467993.02146                  24042220.7614
        42.7504         23.0004
  21327664.0584      -8430.48249    -12447.89348                  21327663.2844
        50.5004         41.2504
  22281271.1754   -5809121.92749  -4503510.97947                  22281271.1364
        47.7504         37.2504
  22693290.9254     763591.57049    586111.84747                  22693290.9334
        44.7504         34.0004
 02  7  9 20 51 44.9980000  0  7G 3G11G14G18G21G25G31
  23797777.2874    2387113.49349   1845270.32447                  23797781.2754
        40.7504         27.5004
  22373847.1784   -5702003.34949  -4423689.79547                  22373846.2524
        48.5004         35.0004
  19961845.5374    -683167.60449   -532583.77448                  19961843.1784
        49.5004         44.5004
  24045887.6004    1919719.03449   1483007.65746                  24045887.4044
        43.0004         22.0004
  21327483.7404      -9380.43249    -13188.11848                  21327482.6624
        51.5004         41.0004
  22268704.1154   -5875164.73749  -4554972.83347                  22268703.7054
        46.2504         37.7504
  22695196.3654     773604.96949    593914.44247                  22695196.7484
        45.5004         33.7504
 02  7  9 20 51 59.9980000  0  7G 3G11G14G18G21G25G31
  23802388.0374    2411345.75849   1864152.44947                  23802392.6624
        40.5004         28.0004
  22361763.7564   -5765506.97449  -4473173.10847                  22361762.0454
        49.0004         36.0004
  19960792.8184    -688698.79249   -536893.79648                  19960790.1624
        49.5004         44.2504
  24049547.9364    1938959.68449   1498000.33446                  24049549.2014
        42.5004         22.0004
  21327303.1394     -10328.39949    -13926.80748                  21327302.3184
        51.5004         41.5004
  22256137.1784   -5941201.45349  -4606429.94847                  22256137.2564
        47.0004         37.5004
  22697110.0614     783660.93549    601750.22047                  22697110.2604
        43.0004         34.0004
 02  7  9 20 52 14.9980000  0  7G 3G11G14G18G21G25G31
  23806991.7724    2435536.60049   1883002.32647                  23806995.6504
        40.7504         26.2504
  22349684.0844   -5828986.03249  -4522637.30047                  22349682.2364
        49.5004         36.0004
  19959751.8894    -694171.70549   -541158.41648                  19959749.1074
        48.7504         45.0004
  24053204.3894    1958171.40249   1512970.44146                  24053205.4714
        42.5004         22.5004
  21327123.2954     -11273.61749    -14663.35648                  21327122.1664
        51.2504         41.0004
  22243572.8734   -6007226.60849  -4657878.05047                  22243573.0884
        46.0004         37.5004
  22699031.7404     793759.08949    609618.85647                  22699032.3654
        42.2504         34.0004
 02  7  9 20 52 29.9980000  0  7G 3G11G14G18G21G25G31
  23811588.1154    2459687.91449   1901821.34347                  23811592.1744
        41.7504         26.7504
  22337609.3574   -5892438.01249  -4572080.37047                  22337607.6664
        49.2504         35.5004
  19958721.9124    -699584.19649   -545375.93448                  19958718.9794
        50.0004         44.7504
  24056855.6544    1977356.52649   1527919.85246                  24056855.6864
        42.7504         22.5004
  21326944.3424     -12213.87049    -15396.02148                  21326943.5414
        51.2504         41.2504
  22231011.8654   -6073237.50449  -4709315.04447                  22231011.5964
        46.7504         38.0004
  22700961.9284     803901.42349    617521.94147                  22700962.1704
        44.7504         34.0004
 02  7  9 20 52 44.9980000  0  7G 3G11G14G18G21G25G31
  23816175.3734    2483794.67749   1920605.67747                  23816179.4674
        42.2504         27.0004
  22325539.0454   -5955867.34349  -4621505.81447                  22325537.6314
        49.2504         35.7504
  19957702.1314    -704941.26249   -549550.27448                  19957699.7294
        49.2504         45.0004
  24060500.5844    1996510.22749   1542844.77946                  24060501.2684
        43.2504         22.5004
  21326765.6704     -13153.75849    -16128.42648                  21326764.6154
        51.0004         41.2504
  22218451.8344   -6139238.66249  -4760744.44747                  22218451.7294
        45.5004         38.0004
  22702899.4674     814082.70549    625455.38347                  22702899.5644
        43.0004         33.0004
 02  7  9 20 52 59.9980000  0  7G 3G11G14G18G21G25G31
  23820753.9824    2507857.03849   1939355.43547                  23820758.6744
        41.2504         27.0004
  22313473.6394   -6019273.09249  -4670912.87347                  22313471.5064
        49.0004         35.7504
  19956693.9364    -710242.63449   -553681.22948                  19956690.3424
        50.5004         45.2504
  24064139.4514    2015633.07449   1557745.62046                  24064140.3854
        43.5004         22.5004
  21326586.8184     -14092.46049    -16859.89548                  21326585.9864
        51.2504         41.5004
  22205894.1934   -6205228.99549  -4812165.41847                  22205895.3934
        47.5004         38.7504
  22704843.7404     824303.23249    633419.36947                  22704844.8574
        45.0004         33.5004
 02  7  9 20 53 14.9980000  0  7G 3G11G14G18G21G25G31
  23825325.8504    2531878.48249   1958073.25847                  23825329.6744
        41.7504         27.5004
  22301412.7794   -6082651.20049  -4720298.40047                  22301411.0844
        49.0004         36.0004
  19955696.1074    -715484.67949   -557765.93748                  19955693.2994
        50.5004         45.0004
  24067773.1544    2034728.82549   1572625.36346                  24067773.9394
        42.7504         24.0004
  21326409.3574     -15026.19249    -17587.49648                  21326408.1434
        51.0004         40.7504
  22193339.6074   -6271204.54349  -4863574.86347                  22193339.7994
        47.5004         38.2504
  22706796.9364     834566.45849    641416.64447                  22706797.5374
        43.0004         33.5004
 02  7  9 20 53 29.9980000  0  7G 3G11G14G18G21G25G31
  23829888.2324    2555857.96249   1976758.40646                  23829893.0764
        41.0004         25.5004
  22289357.7094   -6146001.96849  -4769662.59347                  22289356.1744
        49.2504         36.5004
  19954709.3574    -720668.23549   -561805.06348                  19954706.6044
        51.0004         44.5004
  24071402.1864    2053796.94349   1587483.63046                  24071402.8304
        43.0004         23.0004
  21326232.7724     -15955.50849    -18311.63648                  21326231.6934
        51.5004         41.0004
  22180787.7954   -6337165.69749  -4914973.10447                  22180787.6394
        48.0004         37.5004
  22708758.5224     844871.36049    649446.39247                  22708758.9084
        44.2504         33.0004
 02  7  9 20 53 44.9980000  0  7G 3G11G14G18G21G25G31
  23834442.8114    2579793.12549   1995409.05647                  23834447.7134
        40.5004         26.0004
  22277307.1864   -6209327.14549  -4819006.88447                  22277305.1114
        49.2504         36.7504
  19953733.7094    -725795.58349   -565800.40948                  19953731.2874
        49.7504         44.5004
  24075024.1864    2072835.37249   1602318.66346                  24075025.6004
        42.2504         23.2504
  21326056.4594     -16882.53649    -19034.01148                  21326055.2484
        52.0004         41.2504
  22168238.1154   -6403114.01249  -4966361.33547                  22168237.4084
        47.7504         38.0004
  22710726.3114     855215.55849    657506.76047                  22710726.9244
        42.0004         32.5004
 02  7  9 20 53 59.9980000  0  7G 3G11G14G18G21G25G31
  23838989.5924    2603685.95749   2014026.72446                  23838994.8224
        40.7504         25.5004
  22265262.3894   -6272624.13749  -4868329.20047                  22265260.0574
        50.2504         37.0004
  19952769.0844    -730864.66249   -569750.34348                  19952766.6824
        49.5004         44.7504
  24078641.8184    2091846.35849   1617132.34546                  24078643.1434
        42.5004         22.5004
  21325881.0064     -17805.04149    -19752.87448                  21325879.4514
        52.0004         41.2504
  22155691.0294   -6469046.79949  -5017737.45847                  22155691.3694
        47.7504         37.7504
  22712702.4204     865601.10249    665599.34847                  22712703.4474
        43.2504         33.0004
 02  7  9 20 54 14.9980000  0  7G 3G11G14G18G21G25G31
  23843528.0144    2627535.48449   2032610.59246                  23843532.8224
        40.5004         24.7504
  22253222.2954   -6335893.35149  -4917629.85947                  22253220.8934
        50.0004         36.2504
  19951815.3034    -735876.43449   -573655.61948                  19951812.6864
        49.7504         45.0004
  24082254.5924    2110829.17649   1631924.12746                  24082255.7444
        42.5004         22.7504
  21325705.8574     -18723.38349    -20468.46448                  21325704.6194
        51.2504         41.2504
  22143147.6154   -6534964.49449  -5069101.82847                  22143147.6784
        46.7504         38.0004
  22714686.1394     876026.86049    673723.27947                  22714687.3504
        43.7504         32.5004
 02  7  9 20 54 29.9980000  0  7G 3G11G14G18G21G25G31
  23848057.8894    2651333.79049   2051154.58446                  23848061.5184
        39.0004         22.5004
  22241186.6544   -6399141.98449  -4966914.49247                  22241184.6864
        49.5004         36.2504
  19950871.4364    -740838.53949   -577522.21148                  19950868.2914
        50.0004         44.7504
  24085860.2564    2129776.27949   1646688.01946                  24085861.0764
        41.5004         22.5004
  21325530.3034     -19645.09949    -21186.70748                  21325529.2054
        51.5004         41.0004
  22130605.0844   -6600874.38649  -5120460.11747                  22130604.9904
        47.2504         37.7504
  22716677.0844     886484.88749    681872.34947                  22716677.9164
        44.2504         32.0004
 02  7  9 20 54 44.9980000  0  7G 3G11G14G18G21G25G31
  23852576.9044    2675085.81749   2069662.50446                  23852581.7094
        39.7504         22.5004
  22229155.7794   -6462364.42449  -5016178.69747                  22229153.8544
        49.7504         36.5004
  19949937.4514    -745745.89849   -581346.13248                  19949934.4124
        50.2504         44.5004
  24089460.5924    2148693.05349   1661428.25146                  24089460.3854
        40.5004         21.7504
  21325355.4824     -20564.77749    -21903.34548                  21325354.5804
        51.0004         40.2504
  22118065.5534   -6666770.55749  -5171807.72147                  22118065.8934
        48.5004         38.0004
  22718673.9754     896980.17349    690050.45547                  22718674.3894
        44.5004         32.5004
 02  7  9 20 54 59.9980000  0  7G 3G11G14G18G21G25G31
  23857087.9594    2698792.37949   2088134.99446                  23857092.9594
        39.2504         22.5004
  22217130.4514   -6525559.15149  -5065421.32547                  22217128.3614
        49.7504         36.7504
  19949014.0764    -750597.41749   -585126.52448                  19949011.3544
        50.5004         44.7504
  24093054.5844    2167580.58349   1676145.79846                  24093054.4364
        42.0004         22.0004
  21325180.6864     -21481.30749    -22617.53848                  21325180.0614
        50.7504         40.5004
  22105528.8424   -6732651.51049  -5223143.46347                  22105529.1664
        48.2504         38.5004
  22720678.5684     907513.73949    698258.38047                  22720679.2364
        44.0004         32.2504
 02  7  9 20 55 14.9980000  0  7G 3G11G14G18G21G25G31
  23861590.7404    2722452.94649   2106571.62846                  23861596.0104
        39.5004         22.0004
  22205109.8894   -6588726.11049  -5114642.31547                  22205107.9044
        49.7504         36.0004
  19948101.4514    -755393.77949   -588863.96148                  19948098.2484
        50.7504         44.5004
  24096643.3184    2186438.64949   1690840.29646                  24096643.2644
        42.0004         22.0004
  21325006.9514     -22394.95449    -23329.48648                  21325006.0684
        50.7504         40.7504
  22092995.0224   -6798517.19349  -5274467.29647                  22092994.6234
        48.0004         38.2504
  22722690.2484     918084.77549    706495.50547                  22722690.6044
        44.2504         32.2504
 02  7  9 20 55 29.9980000  0  7G 3G11G14G18G21G25G31
  23866085.3344    2746068.95649   2124973.58546                  23866090.0574
        39.7504         24.0004
  22193095.6474   -6651863.16149  -5163840.00347                  22193093.2874
        50.2504         37.2504
  19947199.5764    -760133.20249   -592557.01948                  19947196.5724
        50.2504         44.5004
  24100226.4204    2205269.05349   1705513.25946                  24100226.5294
        42.5004         22.5004
  21324834.0064     -23303.69049    -24037.61748                  21324833.3344
        50.0004         40.5004
  22080464.5064   -6864365.39349  -5325777.52547                  22080464.2054
        48.5004         38.5004
  22724709.3974     928694.92249    714763.10847                  22724709.5294
        43.0004         32.2504
 02  7  9 20 55 44.9980000  0  7G 3G11G14G18G21G25G31
  23870570.4594    2769637.07449   2143338.21546                  23870575.2914
        40.0004         24.7504
  22181086.0534   -6714973.06849  -5213016.54047                  22181084.3464
        50.2504         36.5004
  19946308.1234    -764819.03349   -596208.32548                  19946305.4084
        50.0004         44.7504
  24103804.0924    2224068.74249   1720162.36546                  24103804.6044
        41.5004         21.7504
  21324661.5764     -24210.64049    -24744.34448                  21324660.8734
        50.5004         40.0004
  22067936.8814   -6930198.87149  -5377076.27747                  22067936.3424
        48.2504         38.0004
  22726735.0684     939340.68849    723058.46147                  22726735.1114
        42.7504         31.7504
 02  7  9 20 55 59.9980000  0  7G 3G11G14G18G21G25G31
  23875047.1544    2793159.16949   2161666.95647                  23875051.8114
        41.2504         26.2504
  22169082.4284   -6778053.25049  -5262169.89547                  22169080.8694
        50.0004         36.7504
  19945426.6704    -769449.13049   -599816.18948                  19945424.2524
        50.5004         44.7504
  24107376.2174    2242839.98249   1734789.26746                  24107376.4944
        40.5004         21.7504
  21324489.8114     -25113.03749    -25447.53148                  21324489.1584
        51.0004         39.7504
  22055412.1004   -6996014.90049  -5428361.42647                  22055412.1274
        48.7504         38.5004
  22728768.7174     950024.08149    731383.13647                  22728769.0884
        42.0004         31.7504
 02  7  9 20 56 14.9980000  0  7G 3G11G14G18G21G25G31
  23879514.8184    2816637.59449   2179961.62447                  23879519.3774
        40.7504         26.2504
  22157084.6234   -6841100.62849  -5311297.70947                  22157083.0414
        49.5004         36.5004
  19944556.8184    -774021.07149   -603378.74148                  19944554.3694
        51.0004         45.0004
  24110943.3654    2261585.49449   1749396.03646                  24110943.5614
        40.7504         21.2504
  21324318.9204     -26008.36649    -26145.19348                  21324318.4794
        50.2504         40.0004
  22042891.8734   -7061810.50449  -5479630.66747                  22042891.3184
        49.0004         38.2504
  22730808.9514     960747.42649    739738.95347                  22730809.7724
        43.0004         32.5004
 02  7  9 20 56 29.9980000  0  7G 3G11G14G18G21G25G31
  23883974.6784    2840072.24549   2198222.27147                  23883979.0024
        42.2504         28.5004
  22145093.4364   -6904114.76249  -5360399.61047                  22145091.7014
        49.5004         37.2504
  19943697.9904    -778534.83949   -606895.97648                  19943695.6194
        50.5004         45.0004
  24114504.0844    2280305.58049   1763983.11446                  24114506.1434
        39.7504         20.0004
  21324150.1784     -26896.45549    -26837.23648                  21324149.5184
        50.2504         40.0004
  22030375.1234   -7127585.28049  -5530883.66947                  22030374.8184
        49.5004         38.7504
  22732857.3184     971510.54849    748125.75447                  22732857.6314
        42.2504         32.5004
 02  7  9 20 56 44.9980000  0  6G 3G11G14G21G25G31
  23888425.5144    2863463.13649   2216448.81347                  23888430.4794
        42.5004         27.5004
  22133108.4824   -6967095.10549  -5409475.17547                  22133106.7484
        50.0004         37.0004
  19942850.0844    -782990.45049   -610367.88648                  19942847.0454
        50.5004         44.7504
  21323983.1154     -27776.93949    -27523.33948                  21323982.4324
        50.7504         39.5004
  22017862.9674   -7193338.54849  -5582119.92347                  22017862.0924
        49.2504         38.7504
  22734912.7644     982313.39249    756543.50747                  22734913.4394
        42.7504         31.5004
 02  7  9 20 56 59.9980000  0  6G 3G11G14G21G25G31
  23892868.2404    2886811.33649   2234642.04447                  23892873.7014
        41.5004         26.7504
  22121130.7794   -7030039.70549  -5458522.89647                  22121129.2294
        50.2504         37.2504
  19942013.6864    -787386.51749   -613793.40348                  19942011.4514
        49.5004         45.0004
  21323816.8814     -28648.47249    -28202.46748                  21323816.1394
        50.7504         40.5004
  22005354.8574   -7259068.47749  -5633337.98447                  22005353.6664
        49.2504         38.2504
  22736975.9984     993157.14349    764993.15247                  22736977.0294
        41.7504         32.0004
 02  7  9 20 57 14.9980000  0  6G 3G11G14G21G25G31
  23897303.9284    2910119.28749   2252803.89547                  23897309.2564
        41.7504         27.7504
  22109160.1624   -7092945.49149  -5507540.38247                  22109158.2954
        49.5004         37.0004
  19941188.8574    -791720.58449   -617170.60048                  19941185.8544
        50.0004         45.0004
  21323653.8264     -29507.99649    -28872.23448                  21323652.9164
        51.0004         40.0004
  21992851.5924   -7324771.83749  -5684535.35247                  21992851.0454
        50.0004         38.5004
  22739047.9514    1004044.05249    773476.41047                  22739048.4244
        42.5004         31.5004
 02  7  9 20 57 29.9980000  0  6G 3G11G14G21G25G31
  23901731.7404    2933386.88749   2270934.32147                  23901736.9904
        42.0004         27.2504
  22097197.0924   -7155811.95849  -5556527.21447                  22097195.1504
        50.0004         37.2504
  19940375.8034    -795992.59249   -620499.43548                  19940372.9474
        50.2504         45.2504
  21323491.9824     -30355.32249    -29532.50548                  21323491.5494
        50.5004         40.0004
  21980353.5374   -7390448.16249  -5735711.63947                  21980353.2684
        49.5004         39.0004
  22741127.3574    1014974.09349    781993.28247                  22741128.4164
        41.5004         31.5004
 02  7  9 20 57 44.9980000  0  6G 3G11G14G21G25G31
  23906152.5924    2956618.37949   2289036.58947                  23906157.4944
        41.5004         27.0004
  22085242.7174   -7218634.35249  -5605479.72147                  22085240.4634
        49.5004         36.5004
  19939575.6864    -800198.16649   -623776.51948                  19939572.5494
        51.0004         45.0004
  21323334.3344     -31185.71949    -30179.57748                  21323333.3974
        51.0004         40.2504
  21967862.0294   -7456092.53649  -5786863.05047                  21967861.2294
        49.5004         38.5004
  22743216.8114    1025951.49949    790547.04347                  22743217.2094
        43.5004         31.2504
 02  7  9 20 57 59.9980000  0  6G 3G11G14G21G25G31
  23910566.3574    2979807.32649   2307105.75646                  23910570.7724
        42.2504         25.5004
  22073294.7954   -7281418.40049  -5654402.33447                  22073293.0024
        49.2504         36.7504
  19938786.6624    -804343.61349   -627006.74348                  19938783.6624
        50.7504         45.2504
  21323178.5454     -32005.44349    -30818.34148                  21323178.2014
        51.0004         40.5004
  21955375.6934   -7521710.56149  -5837993.90847                  21955374.5804
        50.0004         38.5004
  22745313.4984    1036969.84349    799132.72747                  22745313.9364
        42.2504         31.5004
 02  7  9 20 58 14.9980000  0  6G 3G11G14G21G25G31
  23914970.3814    3002952.43349   2325140.73947                  23914975.3224
        42.2504         26.0004
  22061354.4904   -7344164.80049  -5703295.59647                  22061352.7684
        49.7504         37.2504
  19938009.1784    -808430.10849   -630191.03148                  19938006.3224
        51.2504         45.2504
  21323024.3264     -32815.37349    -31449.46048                  21323023.5144
        51.0004         40.2504
  21942893.6934   -7587302.94749  -5889104.79747                  21942892.8264
        50.5004         39.0004
  22747417.9044    1048027.81549    807749.29047                  22747418.5614
        43.2504         31.2504
 02  7  9 20 58 29.9980000  0  6G 3G11G14G21G25G31
  23919368.3974    3026058.97049   2343145.66447                  23919372.3304
        44.2504         27.0004
  22049422.6394   -7406867.64149  -5752154.94847                  22049420.9984
        49.2504         36.7504
  19937243.5924    -812452.36649   -633325.27248                  19937241.3384
        51.2504         44.7504
  21322873.2014     -33609.86849    -32068.56648                  21322872.3074
        51.0004         40.0004
  21930417.5454   -7652863.83649  -5940191.15247                  21930417.0334
        49.7504         38.5004
  22749531.0924    1059130.54749    816400.71047                  22749531.7094
        44.0004         31.7504
 02  7  9 20 58 44.9980000  0  6G 3G11G14G21G25G31
  23923757.7014    3049129.43449   2361122.50047                  23923762.9394
        43.0004         26.0004
  22037499.5294   -7469523.81449  -5800977.91847                  22037498.1074
        49.2504         37.0004
  19936491.3344    -816407.76049   -636407.40248                  19936488.4634
        50.5004         44.7504
  21322725.8034     -34385.63949    -32673.07348                  21322724.9204
        50.5004         40.5004
  21917948.5374   -7718389.91149  -5991250.36447                  21917947.7404
        49.7504         38.5004
  22751653.0064    1070280.65849    825089.06447                  22751653.4944
        42.0004         31.7504
 02  7  9 20 58 59.9980000  0  6G 3G11G14G21G25G31
  23928140.9904    3072160.69049   2379068.77646                  23928145.8184
        44.2504         25.5004
  22025584.7874   -7532135.76449  -5849766.42347                  22025582.9394
        49.2504         37.2504
  19935750.6474    -820299.35749   -639439.82548                  19935747.6394
        50.2504         44.7504
  21322580.3654     -35145.92949    -33265.52348                  21322579.8424
        50.5004         40.0004
  21905485.1394   -7783883.73849  -6042284.46347                  21905484.1544
        49.2504         38.5004
  22753782.2094    1081474.83049    833811.75147                  22753782.9944
        42.5004         32.0004
 02  7  9 20 59 14.9980000  0  6G 3G11G14G21G25G31
  23932516.3424    3095156.03449   2396987.07447                  23932521.7994
        44.2504         26.0004
  22013679.2874   -7594699.54949  -5898517.41347                  22013677.5574
        49.0004         37.2504
  19935022.6474    -824123.62149   -642419.78348                  19935020.1864
        50.5004         44.7504
  21322439.7644     -35886.82149    -33842.85848                  21322438.8574
        50.5004         39.5004
  21893028.7484   -7849341.43349  -6093290.40948                  21893028.2914
        49.5004         39.5004
  22755921.8114    1092716.51749    842571.46147                  22755922.5614
        43.2504         31.0004
 02  7  9 20 59 29.9980000  0  6G 3G11G14G21G25G31
  23936886.5764    3118117.72949   2414879.16947                  23936891.3224
        44.5004         27.7504
  22001783.6314   -7657212.10149  -5947228.47447                  22001781.7954
        49.2504         37.0004
  19934308.4364    -827878.15549   -645345.39148                  19934306.0254
        51.2504         45.0004
  21322303.1004     -36605.48349    -34402.86948                  21322302.6824
        51.0004         39.5004
  21880580.4284   -7914759.92149  -6144265.78947                  21880580.0764
        50.0004         38.7504
  22758070.7644    1104007.90549    851369.90647                  22758071.5764
        43.5004         31.7504
 02  7  9 20 59 44.9980000  0  6G 3G11G14G21G25G31
  23941249.5144    3141045.39749   2432744.73347                  23941254.2214
        44.5004         26.2504
  21989897.6154   -7719673.31249  -5995899.53047                  21989896.2134
        49.0004         37.0004
  19933606.9904    -831563.39649   -648217.01048                  19933604.6044
        50.2504         45.0004
  21322170.7254     -37302.10749    -34945.70748                  21322169.5494
        50.5004         39.5004
  21868138.7324   -7980139.03549  -6195210.49947                  21868138.1044
        49.7504         38.7504
  22760229.5294    1115348.59249    860206.74947                  22760229.7484
        42.5004         31.7504
 02  7  9 20 59 59.9980000  0  6G 3G11G14G21G25G31
  23945605.8814    3163940.35949   2450584.80447                  23945611.7214
        44.0004         26.5004
  21978021.6934   -7782081.13649  -6044528.98247                  21978020.5144
        48.7504         36.7504
  19932919.5924    -835177.79549   -651033.43448                  19932916.5724
        51.0004         45.2504
  21322042.4284     -37975.06249    -35470.10147                  21322042.0684
        50.5004         39.0004
  21855705.3894   -8045476.61649  -6246122.84447                  21855704.9434
        49.7504         38.7504
  22762396.5064    1126739.86449    869083.03847                  22762396.7014
        42.5004         31.0004
 02  7  9 21  0 14.9980000  0  6G 3G11G14G21G25G31
  23949956.4124    3186803.43749   2468400.03247                  23949962.5844
        42.7504         27.5004
  21966156.1314   -7844434.30949  -6093115.85247                  21966155.0334
        49.0004         37.5004
  19932245.2014    -838720.55249   -653794.03548                  19932242.4004
        50.7504         45.0004
  21321919.3504     -38623.11949    -35975.11047                  21321918.1974
        50.5004         38.7504
  21843280.5684   -8110771.27349  -6297001.75148                  21843279.9394
        50.2504         39.5004
  22764574.3504    1138182.40449    877999.23247                  22764575.1474
        42.0004         31.5004
 02  7  9 21  0 29.9980000  0  6G 3G11G14G21G25G31
  23954300.8034    3209630.76449   2486187.41047                  23954306.6234
        43.2504         28.2504
  21954300.6154   -7906735.92849  -6141662.53847                  21954298.9084
        49.0004         37.5004
  19931583.8574    -842195.27649   -656501.61648                  19931581.2254
        51.0004         45.0004
  21321799.8814     -39249.77049    -36463.42148                  21321798.6974
        50.5004         39.5004
  21830862.9904   -8176026.00849  -6347849.54847                  21830862.5534
        49.7504         39.0004
  22766760.5454    1149672.38949    886952.41647                  22766761.3184
        42.5004         31.2504
 02  7  9 21  0 44.9980000  0  6G 3G11G14G21G25G31
  23958639.1784    3232424.03849   2503948.23547                  23958643.9474
        43.0004         26.2504
  21942455.0764   -7968983.62349  -6190167.21747                  21942453.2324
        49.5004         37.5004
  19930935.8504    -845600.18149   -659154.79348                  19930933.2834
        50.5004         44.5004
  21321685.1154     -39852.87949    -36933.39147                  21321684.8424
        50.5004         39.2504
  21818453.0684   -8241238.49949  -6398664.42748                  21818452.9714
        49.7504         39.7504
  22768956.8424    1161211.67849    895944.03647                  22768957.2174
        42.0004         32.0004
 02  7  9 21  0 59.9980000  0  6G 3G11G14G21G25G31
  23962969.2564    3255182.24849   2521681.72546                  23962975.0534
        42.7504         25.5004
  21930620.4754   -8031177.88249  -6238630.26247                  21930618.4164
        49.7504         37.2504
  19930301.2094    -848936.09049   -661754.21848                  19930298.3894
        51.2504         44.5004
  21321574.9364     -40433.20149    -37385.61148                  21321573.9324
        51.0004         39.5004
  21806051.5844   -8306409.29449  -6449446.81048                  21806050.8574
        50.0004         40.0004
  22771161.4754    1172799.05949    904973.14247                  22771162.6744
        42.5004         32.2504
 02  7  9 21  1 14.9980000  0  6G 3G11G14G21G25G31
  23967294.4044    3277911.84149   2539392.92846                  23967300.2484
        41.7504         24.0004
  21918796.5534   -8093311.51249  -6287046.06147                  21918794.8814
        49.0004         37.5004
  19929681.0374    -852196.52049   -664294.82348                  19929677.6664
        50.5004         44.7504
  21321470.4984     -40983.74449    -37814.62648                  21321469.4204
        51.0004         39.7504
  21793658.9124   -8371531.14749  -6500191.07247                  21793658.9284
        49.7504         39.2504
  22773377.3814    1184441.03949    914044.71747                  22773377.9124
        42.7504         31.2504
 02  7  9 21  1 29.9980000  0  6G 3G11G14G21G25G31
  23971613.8184    3300608.87949   2557078.75846                  23971619.4124
        41.2504         25.5004
  21906983.8264   -8155387.78949  -6335417.17147                  21906982.2644
        49.0004         37.7504
  19929074.1234    -855385.21949   -666779.53548                  19929071.2294
        50.0004         44.7504
  21321370.4984     -41508.15649    -38223.26748                  21321369.2914
        51.0004         40.0004
  21781275.4514   -8436607.22249  -6550899.65448                  21781275.2564
        49.7504         39.7504
  22775602.0534    1196133.67849    923155.81547                  22775602.1074
        42.0004         32.2504
 02  7  9 21  1 44.9980000  0  6G 3G11G14G21G25G31
  23975924.2874    3323267.12449   2574734.35946                  23975931.8464
        39.5004         23.7504
  21895180.6154   -8217412.46649  -6383748.05947                  21895179.1624
        49.0004         37.7504
  19928479.3654    -858508.44749   -669213.21848                  19928477.1894
        50.7504         44.7504
  21321274.2644     -42012.22949    -38616.06748                  21321273.6314
        51.7504         40.5004
  21768899.7014   -8501643.18049  -6601576.97248                  21768899.3734
        50.0004         39.5004
  22777835.6234    1207870.58649    932301.41747                  22777836.2874
        44.0004         32.0004
 02  7  9 21  1 59.9980000  0  6G 3G11G14G21G25G31
  23980231.3184    3345893.34149   2592364.97746                  23980236.9324
        40.5004         24.5004
  21883388.7794   -8279377.99449  -6432032.86147                  21883387.6974
        48.2504         37.7504
  19927899.1154    -861559.35749   -671590.56248                  19927896.3974
        50.2504         44.7504
  21321184.1074     -42488.78249    -38987.42448                  21321182.8614
        51.0004         40.2504
  21756533.0454   -8566631.69649  -6652217.31848                  21756532.2174
        50.0004         39.5004
  22780078.7874    1219658.55449    941486.80947                  22780079.2324
        42.7504         32.5004
 02  7  9 21  2 14.9980000  0  6G 3G11G14G21G25G31
  23984530.5844    3368488.84449   2609971.67146                  23984537.4754
        40.2504         24.0004
  21871608.7644   -8341282.48349  -6480270.11547                  21871607.3734
        49.5004         37.5004
  19927332.2174    -864536.54449   -673910.46048                  19927329.6934
        50.5004         44.5004
  21321098.6154     -42936.18549    -39336.06048                  21321097.9364
        51.2504         40.0004
  21744175.1704   -8631570.63649  -6702819.05448                  21744174.5644
        50.2504         39.7504
  22782332.1074    1231498.77749    950712.88947                  22782332.8384
        42.2504         32.0004
 02  7  9 21  2 29.9980000  0  6G 3G11G14G21G25G31
  23988825.8344    3391056.67349   2627556.85946                  23988831.6004
        42.2504         24.0004
  21859841.3344   -8403122.33249  -6528456.98847                  21859839.1004
        49.2504         38.0004
  19926780.5924    -867436.79649   -676170.40748                  19926777.6584
        50.0004         44.7504
  21321020.2564     -43350.89349    -39659.23148                  21321018.6354
        50.7504         39.7504
  21731828.0764   -8696456.49849  -6753379.42547                  21731827.4944
        50.0004         39.2504
  22784595.5374    1243394.30049    959982.07747                  22784596.6624
        41.2504         32.5004
 02  7  9 21  2 44.9980000  0  6G 3G11G14G21G25G31
  23993115.0374    3413597.82149   2645121.21746                  23993122.0924
        42.5004         25.2504
  21848086.9514   -8464895.84949  -6576592.18247                  21848084.5884
        48.5004         38.0004
  19926243.6394    -870259.07749   -678369.59648                  19926240.3344
        50.0004         45.0004
  21320947.4824     -43731.60049    -39955.90948                  21320946.6974
        50.5004         40.0004
  21719490.9434   -8761287.53449  -6803897.07348                  21719490.8144
        49.7504         39.7504
  22786869.8264    1255346.07649    969295.09647                  22786870.9084
        42.0004         31.7504
 02  7  9 21  2 59.9980000  0  6G 3G11G14G21G25G31
  23997400.4754    3436117.59049   2662668.92446                  23997406.8304
        42.7504         22.7504
  21836344.5844   -8526597.06249  -6624671.02247                  21836343.1234
        48.0004         37.7504
  19925722.6234    -872997.91049   -680503.75048                  19925719.8034
        50.0004         45.0004
  21320882.4284     -44072.65949    -40221.67648                  21320881.6354
        49.5004         39.7504
  21707165.7724   -8826057.75449  -6854367.32048                  21707165.4084
        50.0004         40.0004
  22789155.9904    1267359.44749    978656.10347                  22789156.8854
        42.0004         31.5004
 02  7  9 21  3 14.9980000  0  6G 3G11G14G21G25G31
  24001680.2564    3458602.33349   2680189.35146                  24001685.6474
        43.5004         22.2504
  21824614.8504   -8588238.91049  -6672703.61047                  21824613.0534
        48.0004         37.7504
  19925214.3814    -875666.80249   -682583.40048                  19925211.7644
        50.2504         45.2504
  21320822.5224     -44387.44349    -40466.97747                  21320821.7994
        49.2504         39.0004
  21694849.3654   -8890780.12949  -6904800.30448                  21694849.1624
        50.0004         40.0004
  22791451.8734    1279420.81849    988054.51347                  22791452.4084
        43.0004         32.2504
 02  7  9 21  3 29.9980000  0  6G 3G11G14G21G25G31
  24005952.9434    3481054.27549   2697684.17846                  24005957.9904
        44.0004         22.7504
  21812896.7254   -8649818.71149  -6720687.84847                  21812894.6974
        48.0004         38.0004
  19924720.0844    -878263.46549   -684606.78548                  19924717.3814
        49.5004         45.5004
  21320768.2644     -44673.16449    -40689.63647                  21320767.5534
        50.5004         38.7504
  21682542.5844   -8955451.94349  -6955193.87748                  21682542.5414
        49.7504         40.2504
  22793756.6864    1291532.15149    997491.87447                  22793757.0724
        40.7504         31.7504
 02  7  9 21  3 44.9980000  0  6G 3G11G14G21G25G31
  24010219.1934    3503471.72149   2715152.24346                  24010223.4634
        43.5004         22.0004
  21801190.0144   -8711337.36049  -6768624.44147                  21801188.3344
        49.2504         38.5004
  19924239.3654    -880789.39349   -686575.04348                  19924236.5414
        49.7504         45.0004
  21320719.4514     -44931.03449    -40890.58747                  21320718.3224
        50.0004         38.5004
  21670245.1314   -9020073.95749  -7005548.64648                  21670244.7404
        50.0004         40.0004
  22796070.5294    1303691.96449   1006966.99447                  22796071.1434
        41.2504         30.7504
 02  7  9 21  3 59.9980000  0  6G 3G11G14G21G25G31
  24014478.4284    3525854.22049   2732592.97046                  24014483.5254
        43.0004         22.5004
  21789494.9594   -8772794.77849  -6816513.32147                  21789493.3464
        48.7504         38.5004
  19923772.3504    -883245.04449   -688488.55148                  19923769.6154
        49.7504         45.0004
  21320675.0534     -45161.21649    -41069.96647                  21320674.7404
        49.7504         39.0004
  21657957.6154   -9084646.03949  -7055864.51348                  21657957.3934
        49.7504         40.5004
  22798392.8574    1315899.55849   1016479.34947                  22798394.5144
        42.7504         31.2504
 02  7  9 21  4 14.9980000  0  6G 3G11G14G21G25G31
  24018730.3574    3548200.83549   2750005.79646                  24018736.1004
        41.0004         21.7504
  21777811.8504   -8834191.14649  -6864354.62147                  21777810.1744
        49.5004         38.2504
  19923318.2564    -885631.14249   -690347.85248                  19923315.4944
        50.5004         45.0004
  21320636.6314     -45364.30949    -41228.23947                  21320636.0764
        50.0004         38.5004
  21645679.4594   -9149168.32349  -7106141.57748                  21645678.7174
        50.5004         40.0004
  22800724.4904    1328154.23949   1026028.41347                  22800726.3034
        42.2504         32.0004
 02  7  9 21  4 29.9980000  0  6G 3G11G14G21G25G31
  24022977.4434    3570517.13549   2767394.94846                  24022982.9204
        41.0004         20.5004
  21766141.3974   -8895520.41949  -6912143.65647                  21766139.1704
        48.7504         38.5004
  19922878.6074    -887942.15849   -692148.65248                  19922875.8034
        49.7504         45.0004
  21320603.9904     -45534.28449    -41360.71047                  21320603.1744
        49.0004         38.2504
  21633411.4284   -9213634.86949  -7156375.20848                  21633411.3424
        50.2504         40.0004
  22803067.5614    1340461.22949   1035618.22547                  22803068.1044
        41.5004         31.5004
 02  7  9 21  4 44.9980000  0  6G 3G11G14G21G25G31
  24027218.1704    3592801.46149   2784759.19646                  24027223.5494
        40.7504         20.5004
  21754482.9434   -8956783.72749  -6959881.27347                  21754480.7324
        48.5004         38.2504
  19922452.9284    -890179.87949   -693892.34048                  19922449.9674
        50.0004         45.0004
  21320577.8814     -45672.73549    -41468.61447                  21320577.3424
        48.0004         38.0004
  21621154.6934   -9278046.72449  -7206566.22448                  21621154.4674
        49.5004         40.2504
  22805418.8264    1352818.94649   1045247.58347                  22805419.9084
        42.2504         31.5004
 02  7  9 21  4 59.9980000  0  6G 3G11G14G21G25G31
  24031450.5764    3615051.75749   2802096.90746                  24031457.6584
        39.2504         21.0004
  21742837.2564   -9017982.35849  -7007568.49547                  21742835.5334
        49.7504         38.7504
  19922040.3264    -892346.05549   -695580.27448                  19922038.2644
        50.0004         45.0004
  21320557.0294     -45781.02649    -41552.99947                  21320556.4794
        49.2504         38.0004
  21608907.3974   -9342405.21149  -7256715.65148                  21608906.6394
        50.5004         40.0004
  22807779.5224    1365225.21849   1054914.73447                  22807780.8894
        40.0004         31.0004
 02  7  9 21  5 14.9980000  0  6G 3G11G14G21G25G31
  24035679.6474    3637268.15049   2819408.18946                  24035685.6504
        40.2504         21.5004
  21731204.2324   -9079115.56249  -7055204.75747                  21731202.0334
        48.5004         39.0004
  19921642.3424    -894440.24949   -697212.13448                  19921639.5494
        49.5004         45.5004
  21320542.3264     -45858.58549    -41613.45947                  21320541.8814
        48.2504         37.5004
  21596670.7644   -9406709.37549  -7306822.76248                  21596670.0294
        50.7504         40.2504
  22810149.7324    1377680.32049   1064619.95147                  22810150.8694
        41.2504         31.0004
 02  7  9 21  5 29.9980000  0  6G 3G11G14G21G25G31
  24039900.8734    3659450.88849   2836693.25646                  24039906.3144
        39.5004         20.2504
  21719583.3424   -9140182.57749  -7102789.42747                  21719581.1194
        48.2504         38.2504
  19921257.4904    -896462.37049   -698787.81648                  19921254.9714
        50.2504         45.2504
  21320534.0064     -45904.98949    -41649.64747                  21320533.0764
        48.2504         38.0004
  21584444.4754   -9470958.40649  -7356886.89948                  21584443.8224
        50.5004         40.5004
  22812529.4594    1390184.24349   1074363.22247                  22812529.9714
        43.0004         30.0004
 02  7  9 21  5 44.9980000  0  6G 3G11G14G21G25G31
  24044116.5374    3681602.03049   2853953.72446                  24044122.6784
        39.7504         21.5004
  21707976.1934   -9201180.56849  -7150320.30947                  21707973.7754
        48.7504         38.5004
  19920886.5294    -898410.14049   -700305.56548                  19920884.1044
        51.0004         45.2504
  21320531.3814     -45917.82949    -41659.66047                  21320530.7564
        49.2504         38.7504
  21572229.4824   -9535149.49549  -7406905.88848                  21572229.0844
        50.2504         40.2504
  22814918.3654    1402739.20849   1084146.23247                  22814919.2684
        43.5004         31.0004
 02  7  9 21  5 59.9980000  0  6G 3G11G14G21G25G31
  24048325.9434    3703716.39849   2871185.54446                  24048330.9904
        41.2504         23.0004
  21696380.3344   -9262114.07849  -7197800.96047                  21696378.4634
        47.7504         38.0004
  19920529.1704    -900288.65749   -701769.34748                  19920526.5844
        49.5004         45.0004
  21320534.5844     -45901.87849    -41647.24147                  21320533.4944
        48.0004         39.0004
  21560024.6074   -9599287.20249  -7456883.27848                  21560023.8304
        50.7504         40.5004
  22817316.0924    1415340.00349   1093964.98547                  22817316.9324
        41.5004         30.2504
 02  7  9 21  6 14.9980000  0  6G 3G11G14G21G25G31
  24052527.4984    3725796.88049   2888390.97146                  24052532.6154
        43.0004         25.5004
  21684798.2014   -9322979.66649  -7245228.66747                  21684795.9554
        47.7504         38.0004
  19920185.3424    -902094.99349   -703176.88348                  19920182.8854
        50.0004         45.0004
  21320543.9204     -45853.84549    -41609.83747                  21320543.0574
        49.0004         39.2504
  21547830.0684   -9663367.99549  -7506816.31948                  21547829.7054
        50.5004         40.5004
  22819724.0764    1427989.29749   1103821.52847                  22819724.8264
        42.2504         30.5004
 02  7  9 21  6 29.9980000  0  6G 3G11G14G21G25G31
  24056722.5294    3747843.24349   2905569.81946                  24056728.1004
        43.2504         23.5004
  21673228.8654   -9383777.00949  -7292603.20847                  21673226.5224
        47.5004         38.2504
  19919855.3034    -903829.24749   -704528.26148                  19919852.6624
        49.7504         45.0004
  21320558.8114     -45773.41449    -41547.18047                  21320558.0494
        49.5004         39.2504
  21535647.1544   -9727391.43149  -7556704.67748                  21535645.9674
        50.2504         40.2504
  22822140.1934    1440686.95649   1113715.74947                  22822140.3574
        42.5004         30.5004
 02  7  9 21  6 44.9980000  0  6G 3G11G14G21G25G31
  24060911.4284    3769854.11749   2922720.98146                  24060916.6894
        44.0004         25.0004
  21661672.1704   -9444506.69849  -7339925.03647                  21661670.4244
        48.5004         38.0004
  19919539.1934    -905492.68349   -705824.45348                  19919535.9514
        50.7504         45.0004
  21320580.0764     -45661.73049    -41460.17448                  21320579.7994
        49.5004         39.5004
  21523474.5614   -9791358.22649  -7606548.88748                  21523474.3114
        50.5004         40.2504
  22824564.7564    1453431.49649   1123646.50947                  22824566.1664
        43.0004         30.2504
 02  7  9 21  6 59.9980000  0  6G 3G11G14G21G25G31
  24065094.1624    3791832.43949   2939846.82846                  24065099.2524
        44.5004         24.5004
  21650128.8264   -9505165.21849  -7387191.38447                  21650127.2994
        46.7504         37.7504
  19919236.6314    -907082.27149   -707063.08548                  19919233.6004
        49.7504         45.0004
  21320607.9984     -45515.54449    -41346.27748                  21320607.2484
        46.7504         39.7504
  21511313.2564   -9855264.83749  -7656346.20448                  21511312.5374
        50.5004         40.5004
  22826999.6394    1466225.78549   1133616.04747                  22827000.6744
        43.5004         31.0004
 02  7  9 21  7 14.9980000  0  5G11G14G21G25G31
  21638599.3344   -9565753.60249  -7434403.10147                  21638597.4864
        47.5004         38.0004
  19918947.6314    -908599.68349   -708245.49448                  19918945.0804
        50.5004         45.0004
  21320642.2484     -45336.18149    -41206.52447                  21320641.3694
        49.2504         39.2504
  21499163.0294   -9919112.50449  -7706097.59848                  21499162.2914
        50.0004         40.0004
  22829443.9124    1479068.20049   1143623.08047                  22829444.7684
        42.0004         30.5004
 02  7  9 21  7 29.9980000  0  5G11G14G21G25G31
  21627083.1864   -9626272.30249  -7481560.52147                  21627080.9794
        47.2504         37.5004
  19918672.3894    -910045.75449   -709372.31148                  19918669.6474
        50.0004         44.7504
  21320682.4044     -45124.48549    -41041.58148                  21320681.4824
        48.5004         39.5004
  21487024.5144   -9982901.40249  -7755803.19248                  21487023.6394
        50.7504         40.2504
  22831896.3654    1491957.64049   1153666.73047                  22831898.0574
        42.5004         29.7504
 02  7  9 21  7 44.9980000  0  5G11G14G21G25G31
  21615579.5224   -9686723.23349  -7528665.11747                  21615577.7404
        47.0004         37.5004
  19918410.3974    -911422.95849   -710445.46048                  19918408.0574
        49.7504         44.7504
  21320728.3574     -44882.49349    -40853.03848                  21320727.9124
        48.5004         39.5004
  21474896.9434  -10046633.35549  -7805464.40848                  21474896.2014
        50.7504         40.2504
  22834357.2874    1504891.45949   1163744.99547                  22834359.1934
        42.2504         29.7504
 02  7  9 21  7 59.9980000  0  5G11G14G21G25G31
  21604089.8814   -9747104.84149  -7575715.71847                  21604088.0804
        46.5004         37.7504
  19918161.8894    -912730.23049   -711464.12748                  19918159.2134
        49.7504         44.7504
  21320780.6624     -44608.69949    -40639.71948                  21320780.1504
        47.2504         39.5004
  21462780.3344  -10110306.75549  -7855080.01348                  21462779.0574
        50.5004         40.5004
  22836827.6394    1517870.61849   1173858.57347                  22836828.6194
        43.0004         30.5004
 02  7  9 21  8 14.9980000  0  5G11G14G21G25G31
  21592612.3264   -9807417.64549  -7622712.68747                  21592610.6314
        47.0004         38.5004
  19917925.9754    -913968.73849   -712429.19748                  19917923.3114
        50.5004         44.7504
  21320838.2404     -44303.98849    -40402.29547                  21320837.9164
        47.5004         39.0004
  21450674.4044  -10173922.34049  -7904650.56048                  21450674.3694
        50.5004         40.5004
  22839305.4984    1530893.80149   1184006.45047                  22839307.1624
        41.7504         30.5004
 02  7  9 21  8 29.9980000  0  5G11G14G21G25G31
  21581150.1784   -9867652.05449  -7669648.57847                  21581148.3854
        47.7504         38.0004
  19917705.4204    -915129.45849   -713333.65748                  19917702.2324
        50.5004         45.0004
  21320904.3184     -43958.87049    -40133.39247                  21320903.5844
        48.0004         39.0004
  21438581.7094  -10237470.31549  -7954168.42148                  21438580.9244
        50.7504         40.0004
  22841794.3344    1543970.02149   1194195.68547                  22841795.6784
        42.2504         30.0004
 02  7  9 21  8 44.9980000  0  5G11G14G21G25G31
  21569701.3654   -9927814.64249  -7716528.49647                  21569699.8854
        47.0004         38.2504
  19917497.5844    -916219.25149   -714182.85048                  19917495.2914
        49.7504         45.0004
  21320976.1544     -43580.16149    -39838.30647                  21320975.8504
        46.0004         39.0004
  21426500.4364  -10300957.22949  -8003638.70348                  21426499.5024
        50.5004         40.2504
  22844291.1864    1557092.16649   1204420.66147                  22844292.3774
        42.7504         29.0004
 02  7  9 21  8 59.9980000  0  5G11G14G21G25G31
  21558266.3184   -9987906.18449  -7763353.06747                  21558264.6234
        47.7504         38.7504
  19917303.5684    -917239.68649   -714978.00048                  19917300.7834
        50.5004         45.2504
  21321054.4434     -43169.19249    -39518.09247                  21321053.8034
        46.2504         38.5004
  21414430.9904  -10364384.02149  -8053062.14248                  21414430.1894
        51.0004         40.7504
  22846796.5614    1570258.58449   1214680.14547                  22846797.8074
        42.0004         29.5004
 02  7  9 21  9 14.9970000  0  5G11G14G21G25G31
  21546845.6104  -10047924.75249  -7810120.77647                  21546843.6924
        47.2504         39.2504
  19917122.0404    -918193.17349   -715720.98348                  19917119.9234
        48.7504         45.0004
  21321138.2674     -42728.19249    -39174.47947                  21321137.8494
        45.7504         38.2504
  21402373.1574  -10427748.37949  -8102436.94048                  21402372.4544
        50.2504         40.5004
  22849310.0714    1583465.67949   1224971.33747                  22849311.1144
        43.7504         30.0004
 02  7  9 21  9 29.9970000  0  5G11G14G21G25G31
  21535437.3684  -10107875.49149  -7856835.62347                  21535435.5994
        48.0004         39.0004
  19916953.7204    -919077.47149   -716410.04748                  19916951.4314
        50.5004         45.0004
  21321228.8064     -42254.37149    -38805.27347                  21321228.1494
        47.0004         37.5004
  21390326.2204  -10491055.83849  -8151767.38048                  21390325.6464
        50.7504         41.0004
  22851832.0014    1596717.48749   1235297.35747                  22851832.8134
        43.0004         29.5004
 02  7  9 21  9 44.9970000  0  5G11G14G21G25G31
  21524043.1884  -10167752.72649  -7903493.19747                  21524041.0994
        47.7504         39.2504
  19916799.0874    -919891.35749   -717044.26148                  19916796.6104
        50.0004         45.2504
  21321325.1884     -41746.38949    -38409.47047                  21321324.7904
        46.0004         37.7504
  21378290.6264  -10554300.46349  -8201048.87648                  21378289.8024
        51.0004         40.5004
  22854362.3214    1610014.12349   1245658.31247                  22854362.9664
        43.5004         29.5004
 02  7  9 21  9 59.9970000  0  5G11G14G21G25G31
  21512662.8994  -10227554.94049  -7950092.32447                  21512661.0834
        48.0004         39.0004
  19916657.6654    -920633.95549   -717622.90548                  19916654.7904
        50.7504         45.2504
  21321428.7044     -41203.13549    -37986.17647                  21321427.8294
        47.0004         37.5004
  21366267.9464  -10617480.75349  -8250280.24948                  21366267.3804
        50.5004         40.7504
  22856900.7124    1623356.41549   1256054.82747                  22856902.4894
        42.2504         30.0004
 02  7  9 21 10 14.9970000  0  5G11G14G21G25G31
  21501295.8604  -10287288.88749  -7996638.23248                  21501294.2744
        48.7504         39.5004
  19916528.4934    -921312.62649   -718151.74348                  19916525.8884
        50.2504         44.7504
  21321537.7284     -40631.38249    -37540.65447                  21321536.4894
        48.7504         37.7504
  21354256.3994  -10680603.45249  -8299466.72248                  21354255.4744
        50.0004         41.0004
  22859447.7514    1636736.89749   1266481.14847                  22859448.6384
        43.2504         29.2504
 02  7  9 21 10 29.9970000  0  5G11G14G21G25G31
  21489944.3994  -10346942.56749  -8043121.60447                  21489942.1884
        47.5004         39.0004
  19916413.6494    -921915.65249   -718621.63048                  19916411.0244
        48.5004         45.5004
  21321654.4544     -40019.28949    -37063.71347                  21321653.2594
        45.7504         38.0004
  21342257.1424  -10743656.44149  -8348598.88048                  21342257.0404
        51.0004         40.7504
  22862002.7674    1650166.98449   1276946.09047                  22862004.1614
        43.5004         29.0004
 02  7  9 21 10 44.9970000  0  5G11G14G21G25G31
  21478606.9464  -10406520.47249  -8089545.94548                  21478605.0524
        48.7504         39.7504
  19916312.8134    -922448.26349   -719036.66848                  19916310.0874
        50.7504         45.0004
  21321777.6184     -39371.61249    -36559.05347                  21321776.5994
        48.5004         38.0004
  21330271.4784  -10806644.28149  -8397680.29248                  21330270.7984
        50.7504         41.0004
  22864567.3374    1663641.46649   1287445.63947                  22864568.9114
        44.0004         29.0004
 02  7  9 21 10 59.9970000  0  5G11G14G21G25G31
  21467283.9314  -10466022.61849  -8135911.24747                  21467282.0754
        48.5004         39.0004
  19916224.3924    -922910.92349   -719397.18148                  19916221.4974
        50.7504         45.2504
  21321907.6034     -38688.89449    -36027.07547                  21321906.3064
        48.5004         38.2504
  21318298.0174  -10869566.80649  -8446710.79648                  21318297.1814
        51.0004         41.0004
  22867138.8374    1677159.60549   1297979.20447                  22867141.7514
        43.2504         28.5004
 02  7  9 21 11 14.9970000  0  5G11G14G21G25G31
  21455976.0244  -10525448.34549  -8182216.98547                  21455973.8294
        49.0004         39.0004
  19916149.7744    -923303.56749   -719703.14448                  19916147.3174
        51.0004         45.0004
  21322044.2354     -37970.39749    -35467.22047                  21322043.0754
        49.5004         38.0004
  21306336.2284  -10932423.47849  -8495689.97148                  21306335.9664
        51.0004         41.0004
  22869721.4464    1690721.55449   1308546.91047                  22869722.1064
        43.2504         29.5004
 02  7  9 21 11 29.9970000  0  5G11G14G21G25G31
  21444682.6814  -10584792.76349  -8228459.38648                  21444680.8454
        49.2504         39.5004
  19916089.2284    -923621.75049   -719951.08048                  19916086.5094
        50.7504         44.7504
  21322188.2984     -37211.87149    -34876.18147                  21322187.6814
        50.0004         38.0004
  21294388.4074  -10995209.52949  -8544614.13948                  21294387.9154
        50.5004         41.5004
  22872310.2354    1704331.38749   1319151.92147                  22872311.9034
        44.5004         29.2504
 02  7  9 21 11 44.9970000  0  5G11G14G21G25G31
  21433405.3454  -10644057.12149  -8274639.39147                  21433403.0484
        48.5004         39.2504
  19916042.3844    -923867.17349   -720142.32348                  19916040.0604
        50.2504         45.2504
  21322339.6884     -36414.49149    -34254.86347                  21322339.2984
        50.0004         38.7504
  21282454.0174  -11057926.02949  -8593484.10148                  21282453.5994
        50.7504         41.5004
  22874909.0404    1717987.28749   1329792.83847                  22874911.0214
        44.2504         29.0004
 02  7  9 21 11 59.9970000  0  5G11G14G21G25G31
  21422142.0874  -10703242.06949  -8320757.51648                  21422140.4424
        49.5004         39.5004
  19916009.3214    -924041.15649   -720277.90348                  19916006.7164
        51.2504         45.2504
  21322499.5174     -35579.15949    -33603.97047                  21322498.5794
        50.2504         39.0004
  21270532.8924  -11120573.54549  -8642300.31148                  21270531.8644
        51.0004         41.7504
  22877515.7674    1731687.90749   1340468.58747                  22877517.6694
        44.5004         29.7504
 02  7  9 21 12 14.9970000  0  5G11G14G21G25G31
  21410895.1184  -10762347.89149  -8366813.99747                  21410893.2594
        49.2504         39.0004
  19915990.0014    -924144.40149   -720358.36248                  19915986.7514
        50.7504         44.7504
  21322664.8684     -34706.52649    -32924.01547                  21322664.2514
        50.0004         38.5004
  21258624.3374  -11183152.29949  -8691062.94848                  21258623.9154
        51.0004         42.0004
  22880132.4234    1745432.32149   1351178.47447                  22880133.6034
        44.5004         29.7504
 02  7  9 21 12 29.9970000  0  5G11G14G21G25G31
  21399662.4384  -10821374.59049  -8412808.81247                  21399660.4354
        48.5004         39.2504
  19915983.1884    -924177.49349   -720384.14148                  19915980.7084
        49.0004         44.7504
  21322838.2594     -33796.88749    -32215.21547                  21322837.7904
        46.2504         39.2504
  21246728.9464  -11245662.42949  -8739772.09848                  21246727.9744
        51.0004         42.5004
  22882755.5014    1759219.88449   1361921.97147                  22882756.8374
        44.2504         29.2504
 02  7  9 21 12 44.9970000  0  5G11G14G21G25G31
  21388445.7204  -10880318.43049  -8458739.05748                  21388444.1924
        49.0004         39.5004
  19915990.9854    -924137.38149   -720352.89248                  19915988.1694
        48.0004         45.0004
  21323019.1104     -32846.86649    -31474.95847                  21323018.4274
        45.7504         39.2504
  21234847.3064  -11308100.10449  -8788424.79848                  21234846.6304
        50.7504         41.5004
  22885388.2124    1773053.54549   1372701.38247                  22885389.3294
        43.0004         29.5004
 02  7  9 21 12 59.9970000  0  5G11G14G21G25G31
  21377245.6034  -10939178.45349  -8504603.99547                  21377243.7314
        48.5004         39.2504
  19916012.7744    -924023.43149   -720264.10948                  19916010.1574
        50.0004         44.7504
  21323207.7594     -31855.40749    -30702.41847                  21323207.2284
        49.0004         39.0004
  21222979.7824  -11370464.46249  -8837020.36448                  21222979.0914
        51.2504         41.7504
  22888029.4384    1786933.70349   1383517.05147                  22888031.1344
        43.0004         29.2504
 02  7  9 21 13 14.9970000  0  5G11G14G21G25G31
  21366060.6574  -10997955.34149  -8550404.14947                  21366058.9194
        49.2504         39.2504
  19916047.8764    -923836.82049   -720118.69648                  19916045.4624
        51.2504         45.0004
  21323404.1264     -30823.55549    -29898.39548                  21323403.5054
        49.5004         39.7504
  21211126.0404  -11432756.21749  -8885559.34848                  21211125.4424
        50.5004         41.0004
  22890679.7354    1800858.93549   1394367.82447                  22890680.8534
        43.5004         29.0004
 02  7  9 21 13 29.9970000  0  5G11G14G21G25G31
  21354891.5714  -11056648.36449  -8596138.95748                  21354890.5014
        48.2504         39.7504
  19916097.5954    -923577.37449   -719916.53948                  19916094.8024
        50.5004         44.5004
  21323608.1424     -29750.77249    -29062.48048                  21323607.5604
        48.7504         39.5004
  21199286.3294  -11494974.38549  -8934041.01048                  21199285.8534
        50.5004         41.5004
  22893338.2984    1814829.41549   1405253.86647                  22893339.2984
        44.5004         30.0004
 02  7  9 21 13 44.9970000  0  5G11G14G21G25G31
  21343738.7514  -11115257.06149  -8641808.05948                  21343737.0834
        48.5004         39.5004
  19916160.6264    -923245.27449   -719657.76548                  19916157.9354
        50.5004         44.5004
  21323820.2514     -28636.92549    -28194.56448                  21323819.4464
        48.0004         39.5004
  21187460.6884  -11557118.48149  -8982464.94548                  21187460.0754
        50.5004         42.5004
  22896004.6654    1828844.87249   1416174.91047                  22896006.6534
        43.7504         28.2504
 02  7  9 21 13 59.9970000  0  5G11G14G21G25G31
  21332602.4934  -11173777.80349  -8687408.62448                  21332600.9584
        48.0004         39.5004
  19916237.8994    -922837.36849   -719339.91948                  19916235.3644
        50.0004         44.2504
  21324040.6424     -27478.76049    -27292.11748                  21324039.9854
        48.0004         39.5004
  21175649.8994  -11619184.92749  -9030828.37048                  21175649.0914
        50.5004         41.7504
  22898681.5564    1842908.21949   1427133.32747                  22898683.2944
        44.5004         30.2504
 02  7  9 21 14 14.9970000  0  5G11G14G21G25G31
  21321481.6654  -11232218.04549  -8732946.46648                  21321479.5834
        48.2504         39.7504
  19916329.1964    -922361.62549   -718969.22348                  19916326.2124
        51.2504         44.2504
  21324268.5634     -26283.78149    -26360.98848                  21324267.6464
        48.0004         40.0004
  21163851.9384  -11681181.13249  -9079137.07048                  21163851.5134
        50.5004         41.5004
  22901365.0324    1857011.45349   1438122.79747                  22901366.7044
        43.5004         28.5004
 02  7  9 21 14 29.9970000  0  5G11G14G21G25G31
  21310377.9784  -11290567.40149  -8778413.48448                  21310376.1464
        48.7504         40.0004
  19916434.4384    -921808.19549   -718537.98948                  19916431.9784
        50.5004         45.0004
  21324504.7284     -25042.05249    -25393.41948                  21324504.3374
        49.0004         40.0004
  21152070.1654  -11743096.61249  -9127382.86248                  21152069.5054
        50.5004         41.5004
  22904058.4154    1871164.28649   1449150.92447                  22904059.3534
        43.5004         28.7504
 02  7  9 21 14 44.9970000  0  5G11G14G21G25G31
  21299291.2824  -11348829.90249  -8823812.81848                  21299289.3414
        47.7504         39.7504
  19916553.4314    -921181.58849   -718049.72648                  19916550.5634
        50.5004         45.0004
  21324748.9464     -23757.54449    -24392.52147                  21324748.1694
        46.7504         39.0004
  21140302.3604  -11804935.42149  -9175568.90748                  21140301.7124
        51.2504         41.2504
  22906760.0564    1885361.99149   1460214.00247                  22906761.5674
        43.5004         30.0004
 02  7  9 21 14 59.9970000  0  5G11G14G21G25G31
  21288220.6494  -11407006.43349  -8869145.17248                  21288218.5174
        47.5004         39.7504
  19916686.5244    -920483.28349   -717505.59248                  19916683.5604
        51.0004         44.7504
  21325001.0954     -22431.33649    -23359.13347                  21325000.7744
        46.5004         39.2504
  21128549.2204  -11866698.47949  -9223695.91948                  21128548.3024
        50.7504         41.5004
  22909470.0484    1899602.92649   1471310.75947                  22909471.2984
        42.5004         29.5004
 02  7  9 21 15 14.9970000  0  5G11G14G21G25G31
  21277166.6734  -11465096.18849  -8914409.90948                  21277164.4624
        48.2504         40.0004
  19916832.6654    -919712.93449   -716905.33248                  19916830.1694
        51.5004         45.0004
  21325261.6034     -21063.14349    -22293.03648                  21325260.6144
        47.0004         39.5004
  21116810.6034  -11928384.95449  -9271763.27848                  21116810.1034
        51.2504         41.7504
  22912187.8684    1913887.41149   1482441.46947                  22912189.4354
        42.0004         29.2504
 02  7  9 21 15 29.9970000  0  5G11G14G21G25G31
  21266129.6574  -11523096.62949  -8959605.05448                  21266127.3764
        48.5004         39.5004
  19916993.3374    -918868.49649   -716247.34448                  19916990.6464
        50.7504         44.7504
  21325530.3214     -19650.62049    -21192.38547                  21325529.6734
        46.5004         38.2504
  21105087.1104  -11989992.39649  -9319769.03948                  21105086.6224
        51.0004         41.0004
  22914915.3684    1928217.23749   1493607.50547                  22914917.0914
        41.0004         29.5004
